Time,TemperatureF,DewpointF,PressureIn,WindDirection,WindDirectionDegrees,WindSpeedMPH,WindSpeedGustMPH,Humidity,HourlyPrecipIn,Conditions,Clouds,dailyrainin,SolarRadiationWatts/m^2,SoftwareType,DateUTC
2013-05-30 00:00:00,72.7,63.5,29.66,East,94,2.0,7.0,73,0.00,,SCT110,0.00,0.00,VWS V14.01,2013-05-30 05:00:00,
2013-05-30 00:02:00,72.7,63.5,29.66,South,180,3.0,3.0,73,0.00,,CLR,0.00,0.00,VWS V14.01,2013-05-30 05:02:00,
2013-05-30 00:05:00,72.8,63.7,29.66,SE,132,2.0,7.0,73,0.00,,SCT110,0.00,0.00,VWS V14.01,2013-05-30 05:05:00,
2013-05-30 00:07:00,72.7,63.5,29.66,ENE,73,0.0,2.0,73,0.00,,CLR,0.00,0.00,VWS V14.01,2013-05-30 05:07:00,
2013-05-30 00:10:00,72.6,63.5,29.66,SE,129,0.0,3.0,73,0.00,,SCT110,0.00,0.00,VWS V14.01,2013-05-30 05:10:00,
2013-05-30 00:12:00,72.4,63.7,29.66,SE,128,0.0,1.0,74,0.00,,CLR,0.00,0.00,VWS V14.01,2013-05-30 05:12:00,
2013-05-30 00:15:00,72.3,63.6,29.67,South,178,0.0,3.0,74,0.00,,SCT110,0.00,0.00,VWS V14.01,2013-05-30 05:15:00,
2013-05-30 00:17:00,72.3,63.6,29.67,ESE,115,0.0,3.0,74,0.00,,CLR,0.00,0.00,VWS V14.01,2013-05-30 05:17:00,
2013-05-30 00:20:00,72.3,63.6,29.67,West,259,0.0,7.0,74,0.00,,SCT110,0.00,0.00,VWS V14.01,2013-05-30 05:20:00,
2013-05-30 00:22:00,72.3,63.6,29.67,SSE,155,0.0,5.0,74,0.00,,CLR,0.00,0.00,VWS V14.01,2013-05-30 05:22:00,
2013-05-30 00:25:00,72.2,63.5,29.67,ESE,113,0.0,5.0,74,0.00,,SCT110,0.00,0.00,VWS V14.01,2013-05-30 05:25:00,
2013-05-30 00:27:00,72.1,63.4,29.67,SE,142,3.0,4.0,74,0.00,,CLR,0.00,0.00,VWS V14.01,2013-05-30 05:27:00,
2013-05-30 00:30:00,72.0,63.7,29.67,ESE,115,0.0,4.0,75,0.00,,SCT110,0.00,0.00,VWS V14.01,2013-05-30 05:30:00,
2013-05-30 00:32:00,71.9,63.5,29.67,East,90,0.0,2.0,75,0.00,,CLR,0.00,0.00,VWS V14.01,2013-05-30 05:32:00,
2013-05-30 00:35:00,71.8,63.5,29.67,SSE,154,0.0,3.0,75,0.00,,SCT110,0.00,0.00,VWS V14.01,2013-05-30 05:35:00,
2013-05-30 00:37:00,71.8,63.5,29.67,SSW,198,0.0,9.0,75,0.00,,CLR,0.00,0.00,VWS V14.01,2013-05-30 05:37:00,
2013-05-30 00:40:00,71.7,63.7,29.67,SE,140,0.0,9.0,76,0.00,,SCT110,0.00,0.00,VWS V14.01,2013-05-30 05:40:00,
2013-05-30 00:42:00,71.7,63.7,29.67,South,179,0.0,6.0,76,0.00,,CLR,0.00,0.00,VWS V14.01,2013-05-30 05:42:00,
2013-05-30 00:45:00,71.7,63.7,29.66,East,101,1.0,8.0,76,0.00,,SCT110,0.00,0.00,VWS V14.01,2013-05-30 05:45:00,
2013-05-30 00:47:00,71.7,63.7,29.66,SSE,167,1.0,6.0,76,0.00,,CLR,0.00,0.00,VWS V14.01,2013-05-30 05:47:00,
2013-05-30 00:50:00,71.7,63.7,29.66,ESE,106,1.0,8.0,76,0.00,,SCT110,0.00,0.00,VWS V14.01,2013-05-30 05:50:00,
2013-05-30 00:52:00,71.7,63.7,29.66,South,189,4.0,5.0,76,0.00,,CLR,0.00,0.00,VWS V14.01,2013-05-30 05:52:00,
2013-05-30 00:55:00,71.7,63.7,29.66,SSE,155,3.0,5.0,76,0.00,,SCT110,0.00,0.00,VWS V14.01,2013-05-30 05:55:00,
2013-05-30 00:57:00,71.7,63.7,29.66,ESE,113,2.0,7.0,76,0.00,,CLR,0.00,0.00,VWS V14.01,2013-05-30 05:57:00,
2013-05-30 01:00:00,71.7,63.7,29.65,SE,139,2.0,7.0,76,0.00,,SCT110,0.00,0.00,VWS V14.01,2013-05-30 06:00:00,
2013-05-30 01:02:00,71.7,63.7,29.65,SSE,163,3.0,5.0,76,0.00,,CLR,0.00,0.00,VWS V14.01,2013-05-30 06:02:00,
2013-05-30 01:05:00,71.6,63.6,29.65,SE,144,3.0,8.0,76,0.00,,SCT110,0.00,0.00,VWS V14.01,2013-05-30 06:05:00,
2013-05-30 01:07:00,71.6,63.6,29.65,East,95,3.0,3.0,76,0.00,,CLR,0.00,0.00,VWS V14.01,2013-05-30 06:07:00,
2013-05-30 01:10:00,71.4,63.8,29.65,West,277,0.0,3.0,77,0.00,,SCT110,0.00,0.00,VWS V14.01,2013-05-30 06:10:00,
2013-05-30 01:12:00,71.3,63.7,29.65,SE,131,0.0,5.0,77,0.00,,CLR,0.00,0.00,VWS V14.01,2013-05-30 06:12:00,
2013-05-30 01:15:00,71.3,63.7,29.66,ESE,105,0.0,5.0,77,0.00,,SCT110,0.00,0.00,VWS V14.01,2013-05-30 06:15:00,
2013-05-30 01:17:00,71.2,64.0,29.66,ESE,113,0.0,4.0,78,0.00,,CLR,0.00,0.00,VWS V14.01,2013-05-30 06:17:00,
2013-05-30 01:20:00,71.2,64.0,29.66,ESE,113,1.0,4.0,78,0.00,,SCT110,0.00,0.00,VWS V14.01,2013-05-30 06:20:00,
2013-05-30 01:22:00,71.3,64.1,29.66,ENE,67,2.0,3.0,78,0.00,,CLR,0.00,0.00,VWS V14.01,2013-05-30 06:22:00,
2013-05-30 01:25:00,71.3,63.7,29.66,SE,126,2.0,7.0,77,0.00,,SCT110,0.00,0.00,VWS V14.01,2013-05-30 06:25:00,
2013-05-30 01:27:00,71.4,63.8,29.66,SE,127,0.0,6.0,77,0.00,,CLR,0.00,0.00,VWS V14.01,2013-05-30 06:27:00,
2013-05-30 01:30:00,71.4,64.2,29.65,East,88,0.0,6.0,78,0.00,,SCT110,0.00,0.00,VWS V14.01,2013-05-30 06:30:00,
2013-05-30 01:33:00,71.2,64.0,29.65,East,81,1.0,2.0,78,0.00,,CLR,0.00,0.00,VWS V14.01,2013-05-30 06:33:00,
2013-05-30 01:35:00,71.2,64.0,29.65,ESE,122,5.0,5.0,78,0.00,,SCT110,0.00,0.00,VWS V14.01,2013-05-30 06:35:00,
2013-05-30 01:38:00,71.2,64.4,29.65,ESE,116,2.0,9.0,79,0.00,,CLR,0.00,0.00,VWS V14.01,2013-05-30 06:38:00,
2013-05-30 01:40:00,71.2,64.4,29.65,ESE,113,3.0,9.0,79,0.00,,SCT110,0.00,0.00,VWS V14.01,2013-05-30 06:40:00,
2013-05-30 01:43:00,71.2,64.4,29.65,East,98,2.0,9.0,79,0.00,,CLR,0.00,0.00,VWS V14.01,2013-05-30 06:43:00,
2013-05-30 01:45:00,71.3,64.5,29.65,ESE,103,2.0,9.0,79,0.00,,SCT110,0.00,0.00,VWS V14.01,2013-05-30 06:45:00,
2013-05-30 01:48:00,71.3,64.5,29.65,East,93,3.0,6.0,79,0.00,,CLR,0.00,0.00,VWS V14.01,2013-05-30 06:48:00,
2013-05-30 01:50:00,71.4,64.6,29.65,SW,236,0.0,6.0,79,0.00,,SCT110,0.00,0.00,VWS V14.01,2013-05-30 06:50:00,
2013-05-30 01:53:00,71.4,64.6,29.65,East,81,1.0,4.0,79,0.00,,CLR,0.00,0.00,VWS V14.01,2013-05-30 06:53:00,
2013-05-30 01:55:00,71.4,64.6,29.65,SW,233,0.0,4.0,79,0.00,,SCT110,0.00,0.00,VWS V14.01,2013-05-30 06:55:00,
2013-05-30 01:58:00,71.4,64.6,29.65,East,80,0.0,3.0,79,0.00,,CLR,0.00,0.00,VWS V14.01,2013-05-30 06:58:00,
2013-05-30 02:00:00,71.4,64.9,29.66,SSE,155,1.0,4.0,80,0.00,,SCT110,0.00,0.00,VWS V14.01,2013-05-30 07:00:00,
2013-05-30 02:03:00,71.4,64.9,29.66,SW,215,0.0,3.0,80,0.00,,CLR,0.00,0.00,VWS V14.01,2013-05-30 07:03:00,
2013-05-30 02:05:00,71.3,64.8,29.66,East,86,6.0,6.0,80,0.00,,SCT110,0.00,0.00,VWS V14.01,2013-05-30 07:05:00,
2013-05-30 02:08:00,71.3,64.8,29.66,SE,136,0.0,6.0,80,0.00,,CLR,0.00,0.00,VWS V14.01,2013-05-30 07:08:00,
2013-05-30 02:10:00,71.2,64.7,29.66,ESE,107,2.0,6.0,80,0.00,,SCT110,0.00,0.00,VWS V14.01,2013-05-30 07:10:00,
2013-05-30 02:13:00,71.3,64.8,29.66,East,82,0.0,3.0,80,0.00,,CLR,0.00,0.00,VWS V14.01,2013-05-30 07:13:00,
2013-05-30 02:15:00,71.3,64.8,29.66,ESE,118,0.0,3.0,80,0.00,,SCT110,0.00,0.00,VWS V14.01,2013-05-30 07:15:00,
2013-05-30 02:18:00,71.3,65.2,29.66,ESE,116,0.0,5.0,81,0.00,,CLR,0.00,0.00,VWS V14.01,2013-05-30 07:18:00,
2013-05-30 02:20:00,71.3,64.8,29.66,ESE,109,1.0,6.0,80,0.00,,SCT110,0.00,0.00,VWS V14.01,2013-05-30 07:20:00,
2013-05-30 02:23:00,71.4,65.3,29.66,SE,127,0.0,7.0,81,0.00,,CLR,0.00,0.00,VWS V14.01,2013-05-30 07:23:00,
2013-05-30 02:25:00,71.3,64.8,29.66,ESE,106,2.0,7.0,80,0.00,,SCT110,0.00,0.00,VWS V14.01,2013-05-30 07:25:00,
2013-05-30 02:28:00,71.4,64.9,29.66,East,95,0.0,7.0,80,0.00,,CLR,0.00,0.00,VWS V14.01,2013-05-30 07:28:00,
2013-05-30 02:30:00,71.4,64.9,29.66,East,91,0.0,9.0,80,0.00,,SCT110,0.00,0.00,VWS V14.01,2013-05-30 07:30:00,
2013-05-30 02:33:00,71.5,65.4,29.66,East,84,0.0,8.0,81,0.00,,CLR,0.00,0.00,VWS V14.01,2013-05-30 07:33:00,
2013-05-30 02:35:00,71.5,65.4,29.66,East,84,0.0,8.0,81,0.00,,SCT110,0.00,0.00,VWS V14.01,2013-05-30 07:35:00,
2013-05-30 02:38:00,71.4,65.3,29.66,ESE,105,1.0,3.0,81,0.00,,CLR,0.00,0.00,VWS V14.01,2013-05-30 07:38:00,
2013-05-30 02:40:00,71.4,65.3,29.66,ENE,57,0.0,3.0,81,0.00,,SCT110,0.00,0.00,VWS V14.01,2013-05-30 07:40:00,
2013-05-30 02:43:00,71.3,65.2,29.66,East,96,0.0,4.0,81,0.00,,CLR,0.00,0.00,VWS V14.01,2013-05-30 07:43:00,
2013-05-30 02:45:00,71.2,65.1,29.66,SE,134,0.0,6.0,81,0.00,,SCT110,0.00,0.00,VWS V14.01,2013-05-30 07:45:00,
2013-05-30 02:48:00,71.3,65.2,29.66,SE,125,0.0,8.0,81,0.00,,CLR,0.00,0.00,VWS V14.01,2013-05-30 07:48:00,
2013-05-30 02:50:00,71.3,65.2,29.66,SSE,150,2.0,8.0,81,0.00,,SCT110,0.00,0.00,VWS V14.01,2013-05-30 07:50:00,
2013-05-30 02:53:00,71.4,65.3,29.66,NE,39,2.0,5.0,81,0.00,,CLR,0.00,0.00,VWS V14.01,2013-05-30 07:53:00,
2013-05-30 02:55:00,71.4,65.3,29.66,East,101,7.0,7.0,81,0.00,,SCT110,0.00,0.00,VWS V14.01,2013-05-30 07:55:00,
2013-05-30 02:58:00,71.3,65.5,29.66,SSE,163,0.0,7.0,82,0.00,,CLR,0.00,0.00,VWS V14.01,2013-05-30 07:58:00,
2013-05-30 03:00:00,71.4,65.6,29.66,SSE,167,0.0,9.0,82,0.00,,SCT110,0.00,0.00,VWS V14.01,2013-05-30 08:00:00,
2013-05-30 03:03:00,71.3,65.5,29.66,SE,126,2.0,4.0,82,0.00,,CLR,0.00,0.00,VWS V14.01,2013-05-30 08:03:00,
2013-05-30 03:05:00,71.3,65.5,29.66,East,94,2.0,4.0,82,0.00,,SCT110,0.00,0.00,VWS V14.01,2013-05-30 08:05:00,
2013-05-30 03:08:00,71.2,65.4,29.66,ESE,115,0.0,3.0,82,0.00,,CLR,0.00,0.00,VWS V14.01,2013-05-30 08:08:00,
2013-05-30 03:10:00,71.1,65.3,29.66,ESE,102,2.0,5.0,82,0.00,,SCT110,0.00,0.00,VWS V14.01,2013-05-30 08:10:00,
2013-05-30 03:13:00,71.1,65.7,29.66,East,100,0.0,3.0,83,0.00,,CLR,0.00,0.00,VWS V14.01,2013-05-30 08:13:00,
2013-05-30 03:15:00,71.1,65.7,29.67,SE,126,2.0,3.0,83,0.00,,SCT110,0.00,0.00,VWS V14.01,2013-05-30 08:15:00,
2013-05-30 03:18:00,71.0,65.6,29.67,ENE,66,0.0,5.0,83,0.00,,CLR,0.00,0.00,VWS V14.01,2013-05-30 08:18:00,
2013-05-30 03:20:00,71.0,65.6,29.67,West,273,0.0,5.0,83,0.00,,SCT110,0.00,0.00,VWS V14.01,2013-05-30 08:20:00,
2013-05-30 03:23:00,71.0,65.6,29.67,SW,223,2.0,3.0,83,0.00,,CLR,0.00,0.00,VWS V14.01,2013-05-30 08:23:00,
2013-05-30 03:25:00,71.0,65.6,29.67,SSW,196,5.0,5.0,83,0.00,,SCT110,0.00,0.00,VWS V14.01,2013-05-30 08:25:00,
2013-05-30 03:28:00,71.0,65.6,29.67,ENE,65,0.0,5.0,83,0.00,,CLR,0.00,0.00,VWS V14.01,2013-05-30 08:28:00,
2013-05-30 03:30:00,71.0,65.6,29.67,ESE,118,1.0,5.0,83,0.00,,SCT110,0.00,0.00,VWS V14.01,2013-05-30 08:30:00,
2013-05-30 03:33:00,71.1,65.7,29.67,East,84,0.0,4.0,83,0.00,,CLR,0.00,0.00,VWS V14.01,2013-05-30 08:33:00,
2013-05-30 03:35:00,71.1,65.7,29.67,East,84,0.0,4.0,83,0.00,,SCT110,0.00,0.00,VWS V14.01,2013-05-30 08:35:00,
2013-05-30 03:38:00,71.1,65.7,29.67,East,84,0.0,1.0,83,0.00,,CLR,0.00,0.00,VWS V14.01,2013-05-30 08:38:00,
2013-05-30 03:40:00,71.0,65.6,29.67,ENE,78,1.0,2.0,83,0.00,,SCT110,0.00,0.00,VWS V14.01,2013-05-30 08:40:00,
2013-05-30 03:43:00,71.1,65.7,29.67,South,184,2.0,5.0,83,0.00,,CLR,0.00,0.00,VWS V14.01,2013-05-30 08:43:00,
2013-05-30 03:45:00,71.1,65.7,29.67,ESE,103,0.0,5.0,83,0.00,,SCT110,0.00,0.00,VWS V14.01,2013-05-30 08:45:00,
2013-05-30 03:48:00,71.1,65.7,29.67,NE,42,1.0,4.0,83,0.00,,CLR,0.00,0.00,VWS V14.01,2013-05-30 08:48:00,
2013-05-30 03:50:00,71.2,65.8,29.67,ESE,116,3.0,4.0,83,0.00,,SCT110,0.00,0.00,VWS V14.01,2013-05-30 08:50:00,
2013-05-30 03:54:00,71.2,65.8,29.67,South,190,0.0,3.0,83,0.00,,CLR,0.00,0.00,VWS V14.01,2013-05-30 08:54:00,
2013-05-30 03:55:00,71.1,65.7,29.67,West,259,0.0,3.0,83,0.00,,SCT110,0.00,0.00,VWS V14.01,2013-05-30 08:55:00,
2013-05-30 03:59:00,71.0,66.3,29.67,SSE,167,0.0,3.0,85,0.00,,CLR,0.00,0.00,VWS V14.01,2013-05-30 08:59:00,
2013-05-30 04:00:00,70.8,66.1,29.68,South,173,0.0,3.0,85,0.00,,SCT110,0.00,0.00,VWS V14.01,2013-05-30 09:00:00,
2013-05-30 04:04:00,70.4,66.0,29.68,ENE,74,0.0,3.0,86,0.00,,OVC070,0.00,0.00,VWS V14.01,2013-05-30 09:04:00,
2013-05-30 04:05:00,70.3,65.9,29.68,WNW,294,5.0,5.0,86,0.00,,SCT110,0.00,0.00,VWS V14.01,2013-05-30 09:05:00,
2013-05-30 04:09:00,70.1,65.7,29.68,West,268,0.0,7.0,86,0.00,,OVC070,0.00,0.00,VWS V14.01,2013-05-30 09:09:00,
2013-05-30 04:10:00,70.0,65.6,29.68,SSE,160,0.0,7.0,86,0.00,,SCT110,0.00,0.00,VWS V14.01,2013-05-30 09:10:00,
2013-05-30 04:14:00,69.7,65.7,29.68,West,275,3.0,4.0,87,0.00,,OVC070,0.00,0.00,VWS V14.01,2013-05-30 09:14:00,
2013-05-30 04:15:00,69.6,65.9,29.70,WSW,242,4.0,4.0,88,0.00,,SCT110,0.00,0.00,VWS V14.01,2013-05-30 09:15:00,
2013-05-30 04:19:00,69.4,65.7,29.70,WSW,254,2.0,4.0,88,0.00,,OVC070,0.00,0.00,VWS V14.01,2013-05-30 09:19:00,
2013-05-30 04:20:00,69.4,65.7,29.70,South,169,0.0,4.0,88,0.01,,SCT110,0.01,0.00,VWS V14.01,2013-05-30 09:20:00,
2013-05-30 04:24:00,69.1,65.7,29.70,SW,220,0.0,3.0,89,0.01,,OVC070,0.01,0.00,VWS V14.01,2013-05-30 09:24:00,
2013-05-30 04:25:00,69.1,65.7,29.70,SW,220,0.0,3.0,89,0.01,,SCT110,0.01,0.00,VWS V14.01,2013-05-30 09:25:00,
2013-05-30 04:29:00,68.8,65.4,29.70,WNW,303,1.0,8.0,89,0.02,,OVC070,0.02,0.00,VWS V14.01,2013-05-30 09:29:00,
2013-05-30 04:30:00,68.7,65.7,29.70,WSW,240,1.0,8.0,90,0.02,,SCT110,0.02,0.00,VWS V14.01,2013-05-30 09:30:00,
2013-05-30 04:34:00,68.5,65.5,29.70,NNW,337,0.0,5.0,90,0.03,,-RA,0.03,0.00,VWS V14.01,2013-05-30 09:34:00,
2013-05-30 04:35:00,68.3,65.3,29.70,WSW,249,0.0,5.0,90,0.03,,SCT110,0.03,0.00,VWS V14.01,2013-05-30 09:35:00,
2013-05-30 04:39:00,68.0,65.3,29.70,WSW,252,0.0,6.0,91,0.04,,-RA,0.04,0.00,VWS V14.01,2013-05-30 09:39:00,
2013-05-30 04:40:00,68.0,65.3,29.70,WNW,299,3.0,6.0,91,0.04,,SCT110,0.04,0.00,VWS V14.01,2013-05-30 09:40:00,
2013-05-30 04:44:00,67.7,65.3,29.70,WSW,246,0.0,4.0,92,0.04,,-RA,0.04,0.00,VWS V14.01,2013-05-30 09:44:00,
2013-05-30 04:45:00,67.6,65.2,29.70,WSW,250,2.0,4.0,92,0.04,,SCT110,0.04,0.00,VWS V14.01,2013-05-30 09:45:00,
2013-05-30 04:49:00,67.4,65.0,29.70,WSW,252,1.0,3.0,92,0.04,,-RA,0.04,0.00,VWS V14.01,2013-05-30 09:49:00,
2013-05-30 04:50:00,67.3,64.9,29.70,West,271,0.0,3.0,92,0.05,,SCT110,0.05,0.00,VWS V14.01,2013-05-30 09:50:00,
2013-05-30 04:54:00,67.1,65.0,29.70,West,271,0.0,3.0,93,0.05,,-RA,0.05,0.00,VWS V14.01,2013-05-30 09:54:00,
2013-05-30 04:55:00,67.0,64.9,29.70,West,271,2.0,3.0,93,0.05,,SCT110,0.05,0.00,VWS V14.01,2013-05-30 09:55:00,
2013-05-30 04:59:00,66.8,64.7,29.70,NW,317,0.0,2.0,93,0.06,,-RA,0.06,0.00,VWS V14.01,2013-05-30 09:59:00,
2013-05-30 05:00:00,66.7,64.3,29.69,NW,311,0.0,4.0,92,0.06,,SCT110,0.06,0.00,VWS V14.01,2013-05-30 10:00:00,
2013-05-30 05:04:00,66.3,64.2,29.69,WNW,300,0.0,2.0,93,0.06,,RA,0.06,0.00,VWS V14.01,2013-05-30 10:04:00,
2013-05-30 05:05:00,66.1,64.0,29.69,WSW,257,0.0,2.0,93,0.06,,SCT110,0.06,0.00,VWS V14.01,2013-05-30 10:05:00,
2013-05-30 05:09:00,65.6,63.2,29.69,WSW,242,0.0,3.0,92,0.07,,RA,0.07,0.00,VWS V14.01,2013-05-30 10:09:00,
2013-05-30 05:10:00,65.5,63.1,29.69,WSW,245,0.0,3.0,92,0.07,,SCT110,0.07,0.00,VWS V14.01,2013-05-30 10:10:00,
2013-05-30 05:14:00,65.0,62.6,29.68,NNE,15,0.0,2.0,92,0.07,,RA,0.07,0.00,VWS V14.01,2013-05-30 10:14:00,
2013-05-30 05:15:00,64.9,62.5,29.68,NNE,15,0.0,2.0,92,0.07,,SCT110,0.07,0.00,VWS V14.01,2013-05-30 10:15:00,
2013-05-30 05:19:00,64.5,62.1,29.68,SSW,209,0.0,2.0,92,0.07,,RA,0.07,0.00,VWS V14.01,2013-05-30 10:19:00,
2013-05-30 05:20:00,64.5,62.4,29.68,SW,219,3.0,3.0,93,0.07,,SCT110,0.07,0.00,VWS V14.01,2013-05-30 10:20:00,
2013-05-30 05:24:00,64.2,61.8,29.68,ENE,57,0.0,3.0,92,0.06,,RA,0.07,0.00,VWS V14.01,2013-05-30 10:24:00,
2013-05-30 05:25:00,64.1,61.7,29.68,ENE,57,0.0,3.0,92,0.06,,SCT110,0.07,0.00,VWS V14.01,2013-05-30 10:25:00,
2013-05-30 05:29:00,63.7,61.3,29.67,NE,53,0.0,2.0,92,0.06,,RA,0.07,0.00,VWS V14.01,2013-05-30 10:29:00,
2013-05-30 05:30:00,63.6,61.2,29.67,NE,53,0.0,2.0,92,0.06,,SCT110,0.07,0.00,VWS V14.01,2013-05-30 10:30:00,
2013-05-30 05:34:00,63.3,61.2,29.67,SE,138,0.0,1.0,93,0.05,,RA,0.07,0.00,VWS V14.01,2013-05-30 10:34:00,
2013-05-30 05:35:00,63.3,61.2,29.67,SSE,165,0.0,1.0,93,0.05,,SCT110,0.07,0.00,VWS V14.01,2013-05-30 10:35:00,
2013-05-30 05:39:00,63.0,61.0,29.67,SSE,165,0.0,1.0,93,0.04,,RA,0.07,0.00,VWS V14.01,2013-05-30 10:39:00,
2013-05-30 05:40:00,62.9,60.8,29.67,SSE,165,0.0,1.0,93,0.04,,SCT110,0.07,0.00,VWS V14.01,2013-05-30 10:40:00,
2013-05-30 05:44:00,62.7,61.0,29.67,SSE,161,0.0,1.0,94,0.03,,RA,0.07,0.00,VWS V14.01,2013-05-30 10:44:00,
2013-05-30 05:45:00,62.7,61.0,29.67,SSE,161,0.0,1.0,94,0.03,,SCT110,0.07,0.00,VWS V14.01,2013-05-30 10:45:00,
2013-05-30 05:49:00,62.9,61.5,29.67,ESE,108,0.0,3.0,95,0.03,,RA,0.07,0.00,VWS V14.01,2013-05-30 10:49:00,
2013-05-30 05:50:00,63.0,61.5,29.67,ESE,108,0.0,3.0,95,0.03,,SCT110,0.07,0.00,VWS V14.01,2013-05-30 10:50:00,
2013-05-30 05:54:00,63.1,61.7,29.67,SSE,155,1.0,4.0,95,0.02,,RA,0.07,0.00,VWS V14.01,2013-05-30 10:54:00,
2013-05-30 05:55:00,63.1,61.7,29.67,SSE,155,0.0,4.0,95,0.02,,SCT110,0.07,0.00,VWS V14.01,2013-05-30 10:55:00,
2013-05-30 05:59:00,63.0,61.5,29.67,South,186,0.0,1.0,95,0.02,,RA,0.07,0.00,VWS V14.01,2013-05-30 10:59:00,
2013-05-30 06:00:00,63.0,61.5,29.67,SE,144,0.0,1.0,95,0.02,,SCT110,0.07,0.00,VWS V14.01,2013-05-30 11:00:00,
2013-05-30 06:04:00,63.1,61.7,29.67,East,95,0.0,3.0,95,0.01,,SCT110,0.07,7.00,VWS V14.01,2013-05-30 11:04:00,
2013-05-30 06:05:00,63.1,61.7,29.67,East,95,0.0,3.0,95,0.01,,SCT110,0.07,7.00,VWS V14.01,2013-05-30 11:05:00,
2013-05-30 06:09:00,63.0,61.5,29.67,ESE,121,0.0,2.0,95,0.01,,SCT110,0.07,9.00,VWS V14.01,2013-05-30 11:09:00,
2013-05-30 06:10:00,63.0,61.5,29.67,ESE,121,0.0,2.0,95,0.01,,SCT110,0.07,9.00,VWS V14.01,2013-05-30 11:10:00,
2013-05-30 06:14:00,63.0,61.5,29.68,SE,143,0.0,1.0,95,0.00,,SCT110,0.07,16.00,VWS V14.01,2013-05-30 11:14:00,
2013-05-30 06:15:00,63.0,61.5,29.68,SE,134,1.0,1.0,95,0.00,,SCT110,0.07,18.00,VWS V14.01,2013-05-30 11:15:00,
2013-05-30 06:20:00,63.0,61.5,29.68,SE,142,0.0,3.0,95,0.00,,SCT110,0.07,19.00,VWS V14.01,2013-05-30 11:20:00,
2013-05-30 06:25:00,63.0,61.5,29.68,East,101,0.0,1.0,95,0.00,,SCT110,0.07,28.00,VWS V14.01,2013-05-30 11:25:00,
2013-05-30 06:30:00,63.0,61.5,29.69,SSE,153,0.0,5.0,95,0.00,,SCT110,0.07,28.00,VWS V14.01,2013-05-30 11:30:00,
2013-05-30 06:35:00,63.0,61.5,29.69,ESE,116,3.0,3.0,95,0.00,,SCT110,0.07,35.00,VWS V14.01,2013-05-30 11:35:00,
2013-05-30 06:40:00,63.1,61.7,29.69,ESE,116,0.0,2.0,95,0.00,,SCT110,0.07,54.00,VWS V14.01,2013-05-30 11:40:00,
2013-05-30 06:45:00,63.2,61.8,29.69,SE,141,3.0,5.0,95,0.00,,SCT110,0.07,60.00,VWS V14.01,2013-05-30 11:45:00,
2013-05-30 06:50:00,63.4,62.0,29.69,East,98,1.0,3.0,95,0.00,,SCT110,0.07,42.00,VWS V14.01,2013-05-30 11:50:00,
2013-05-30 06:55:00,63.4,61.7,29.69,ESE,115,0.0,4.0,94,0.00,,SCT110,0.07,28.00,VWS V14.01,2013-05-30 11:55:00,
2013-05-30 07:00:00,63.4,61.7,29.68,ESE,107,1.0,6.0,94,0.00,,SCT110,0.07,26.00,VWS V14.01,2013-05-30 12:00:00,
2013-05-30 07:05:00,63.3,61.8,29.68,ESE,107,1.0,5.0,95,0.00,,BKN095,0.07,32.00,VWS V14.01,2013-05-30 12:05:00,
2013-05-30 07:10:00,63.3,61.8,29.68,East,90,0.0,3.0,95,0.00,,BKN095,0.07,37.00,VWS V14.01,2013-05-30 12:10:00,
2013-05-30 07:15:00,63.4,62.0,29.69,ESE,108,0.0,1.0,95,0.00,,BKN095,0.07,56.00,VWS V14.01,2013-05-30 12:15:00,
2013-05-30 07:20:00,63.6,62.2,29.69,ESE,111,1.0,4.0,95,0.00,,BKN095,0.07,67.00,VWS V14.01,2013-05-30 12:20:00,
2013-05-30 07:25:00,63.9,62.1,29.69,ESE,116,0.0,2.0,94,0.00,,BKN095,0.07,114.00,VWS V14.01,2013-05-30 12:25:00,
2013-05-30 07:30:00,64.4,62.3,29.69,SE,130,2.0,2.0,93,0.00,,BKN095,0.07,125.00,VWS V14.01,2013-05-30 12:30:00,
2013-05-30 07:35:00,64.7,62.6,29.69,SE,130,0.0,2.0,93,0.00,,BKN095,0.07,120.00,VWS V14.01,2013-05-30 12:35:00,
2013-05-30 07:40:00,64.9,62.8,29.69,SW,216,3.0,4.0,93,0.00,,BKN095,0.07,102.00,VWS V14.01,2013-05-30 12:40:00,
2013-05-30 07:45:00,65.0,62.9,29.70,ESE,113,1.0,4.0,93,0.00,,BKN095,0.07,100.00,VWS V14.01,2013-05-30 12:45:00,
2013-05-30 07:50:00,65.1,62.7,29.70,ESE,116,0.0,0.0,92,0.00,,BKN095,0.07,104.00,VWS V14.01,2013-05-30 12:50:00,
2013-05-30 07:55:00,65.3,62.9,29.70,East,88,0.0,0.0,92,0.00,,BKN095,0.07,113.00,VWS V14.01,2013-05-30 12:55:00,
2013-05-30 08:00:00,65.5,62.8,29.70,ESE,119,2.0,5.0,91,0.00,,BKN095,0.07,98.00,VWS V14.01,2013-05-30 13:00:00,
2013-05-30 08:05:00,65.6,62.9,29.70,SSW,207,4.0,5.0,91,0.00,,OVC100,0.07,86.00,VWS V14.01,2013-05-30 13:05:00,
2013-05-30 08:10:00,65.8,62.8,29.70,East,101,3.0,3.0,90,0.00,,OVC100,0.07,134.00,VWS V14.01,2013-05-30 13:10:00,
2013-05-30 08:15:00,66.1,63.1,29.70,South,171,3.0,6.0,90,0.00,,OVC100,0.07,165.00,VWS V14.01,2013-05-30 13:15:00,
2013-05-30 08:20:00,66.7,63.4,29.70,ESE,103,0.0,0.0,89,0.00,,OVC100,0.07,155.00,VWS V14.01,2013-05-30 13:20:00,
2013-05-30 08:25:00,67.1,63.8,29.70,NNE,13,5.0,5.0,89,0.00,,OVC100,0.07,200.00,VWS V14.01,2013-05-30 13:25:00,
2013-05-30 08:30:00,67.7,64.3,29.70,SSE,157,2.0,5.0,89,0.00,,OVC100,0.07,167.00,VWS V14.01,2013-05-30 13:30:00,
2013-05-30 08:35:00,68.0,64.0,29.70,ESE,117,1.0,2.0,87,0.00,,OVC100,0.07,188.00,VWS V14.01,2013-05-30 13:35:00,
2013-05-30 08:40:00,68.4,64.4,29.70,NNE,32,0.0,4.0,87,0.00,,OVC100,0.07,186.00,VWS V14.01,2013-05-30 13:40:00,
2013-05-30 08:45:00,68.6,64.6,29.69,ESE,121,3.0,3.0,87,0.00,,OVC100,0.07,149.00,VWS V14.01,2013-05-30 13:45:00,
2013-05-30 08:50:00,69.0,64.6,29.69,South,175,3.0,9.0,86,0.00,,SCT110,0.07,441.00,VWS V14.01,2013-05-30 13:50:00,
2013-05-30 08:51:00,69.1,64.7,29.69,WNW,297,0.0,3.0,86,0.00,,OVC100,0.07,446.00,VWS V14.01,2013-05-30 13:51:00,
2013-05-30 08:55:00,69.8,65.1,29.69,ESE,116,3.0,11.0,85,0.00,,SCT110,0.07,471.00,VWS V14.01,2013-05-30 13:55:00,
2013-05-30 08:56:00,69.8,65.1,29.69,ESE,117,5.0,5.0,85,0.00,,OVC100,0.07,471.00,VWS V14.01,2013-05-30 13:56:00,
2013-05-30 09:00:00,70.3,65.6,29.68,ESE,116,0.0,6.0,85,0.00,,SCT110,0.07,485.00,VWS V14.01,2013-05-30 14:00:00,
2013-05-30 09:01:00,70.3,65.6,29.68,ENE,71,3.0,3.0,85,0.00,,OVC100,0.07,487.00,VWS V14.01,2013-05-30 14:01:00,
2013-05-30 09:05:00,70.5,65.4,29.68,SE,140,3.0,7.0,84,0.00,,SCT110,0.07,492.00,VWS V14.01,2013-05-30 14:05:00,
2013-05-30 09:06:00,70.6,65.5,29.68,SE,140,0.0,3.0,84,0.00,,BKN038,0.07,504.00,VWS V14.01,2013-05-30 14:06:00,
2013-05-30 09:10:00,70.9,65.8,29.68,East,81,5.0,8.0,84,0.00,,SCT110,0.07,520.00,VWS V14.01,2013-05-30 14:10:00,
2013-05-30 09:11:00,70.9,65.1,29.68,SE,129,3.0,7.0,82,0.00,,BKN038,0.07,520.00,VWS V14.01,2013-05-30 14:11:00,
2013-05-30 09:15:00,71.1,65.3,29.67,SSW,212,3.0,7.0,82,0.00,,SCT110,0.07,534.00,VWS V14.01,2013-05-30 14:15:00,
2013-05-30 09:16:00,71.1,65.7,29.67,SSE,167,3.0,4.0,83,0.00,,BKN038,0.07,534.00,VWS V14.01,2013-05-30 14:16:00,
2013-05-30 09:20:00,71.2,65.4,29.67,SE,137,5.0,11.0,82,0.00,,SCT110,0.07,552.00,VWS V14.01,2013-05-30 14:20:00,
2013-05-30 09:21:00,71.2,65.4,29.67,ESE,119,3.0,7.0,82,0.00,,BKN038,0.07,552.00,VWS V14.01,2013-05-30 14:21:00,
2013-05-30 09:25:00,71.4,65.6,29.67,SE,144,0.0,11.0,82,0.00,,SCT110,0.07,559.00,VWS V14.01,2013-05-30 14:25:00,
2013-05-30 09:26:00,71.4,65.6,29.67,SE,141,3.0,6.0,82,0.00,,BKN038,0.07,557.00,VWS V14.01,2013-05-30 14:26:00,
2013-05-30 09:30:00,71.7,65.9,29.67,ESE,115,1.0,9.0,82,0.00,,SCT110,0.07,587.00,VWS V14.01,2013-05-30 14:30:00,
2013-05-30 09:31:00,71.8,66.0,29.67,East,96,6.0,6.0,82,0.00,,BKN038,0.07,585.00,VWS V14.01,2013-05-30 14:31:00,
2013-05-30 09:35:00,72.2,66.4,29.67,NW,311,2.0,9.0,82,0.00,,SCT110,0.07,636.00,VWS V14.01,2013-05-30 14:35:00,
2013-05-30 09:36:00,72.2,66.1,29.67,East,98,1.0,5.0,81,0.00,,BKN038,0.07,636.00,VWS V14.01,2013-05-30 14:36:00,
2013-05-30 09:40:00,72.5,66.0,29.67,ESE,121,1.0,9.0,80,0.00,,SCT110,0.07,636.00,VWS V14.01,2013-05-30 14:40:00,
2013-05-30 09:41:00,72.5,66.3,29.67,ESE,119,2.0,6.0,81,0.00,,BKN038,0.07,636.00,VWS V14.01,2013-05-30 14:41:00,
2013-05-30 09:45:00,73.0,66.8,29.66,East,98,7.0,7.0,81,0.00,,SCT110,0.07,656.00,VWS V14.01,2013-05-30 14:45:00,
2013-05-30 09:46:00,73.1,66.6,29.66,ENE,59,4.0,8.0,80,0.00,,BKN038,0.07,689.00,VWS V14.01,2013-05-30 14:46:00,
2013-05-30 09:50:00,73.3,66.8,29.66,SE,130,7.0,9.0,80,0.00,,SCT110,0.07,779.00,VWS V14.01,2013-05-30 14:50:00,
2013-05-30 09:51:00,73.2,66.3,29.66,South,173,3.0,8.0,79,0.00,,BKN038,0.07,338.00,VWS V14.01,2013-05-30 14:51:00,
2013-05-30 09:55:00,73.3,66.4,29.66,ESE,111,3.0,11.0,79,0.00,,SCT110,0.07,327.00,VWS V14.01,2013-05-30 14:55:00,
2013-05-30 09:56:00,73.3,66.4,29.66,SE,138,2.0,3.0,79,0.00,,BKN038,0.07,236.00,VWS V14.01,2013-05-30 14:56:00,
2013-05-30 10:00:00,73.3,66.8,29.67,ESE,120,0.0,9.0,80,0.00,,SCT110,0.07,236.00,VWS V14.01,2013-05-30 15:00:00,
2013-05-30 10:01:00,73.3,66.8,29.67,SW,230,1.0,5.0,80,0.00,,BKN038,0.07,236.00,VWS V14.01,2013-05-30 15:01:00,
2013-05-30 10:05:00,73.4,66.9,29.67,ENE,60,2.0,10.0,80,0.00,,SCT110,0.07,446.00,VWS V14.01,2013-05-30 15:05:00,
2013-05-30 10:06:00,73.4,66.5,29.67,SSE,165,3.0,9.0,79,0.00,,SCT026,0.07,325.00,VWS V14.01,2013-05-30 15:06:00,
2013-05-30 10:10:00,73.5,67.0,29.67,East,87,0.0,9.0,80,0.00,,SCT110,0.07,325.00,VWS V14.01,2013-05-30 15:10:00,
2013-05-30 10:11:00,73.6,67.1,29.67,SSE,163,1.0,7.0,80,0.00,,SCT026,0.07,325.00,VWS V14.01,2013-05-30 15:11:00,
2013-05-30 10:15:00,73.9,67.0,29.67,SE,138,2.0,8.0,79,0.00,,SCT110,0.07,422.00,VWS V14.01,2013-05-30 15:15:00,
2013-05-30 10:16:00,74.0,67.4,29.67,NE,37,3.0,5.0,80,0.00,,SCT026,0.07,422.00,VWS V14.01,2013-05-30 15:16:00,
2013-05-30 10:20:00,74.1,67.2,29.67,WNW,292,2.0,10.0,79,0.00,,SCT110,0.07,306.00,VWS V14.01,2013-05-30 15:20:00,
2013-05-30 10:21:00,74.0,66.7,29.67,SSE,159,3.0,18.0,78,0.00,,BKN026,0.07,306.00,VWS V14.01,2013-05-30 15:21:00,
2013-05-30 10:25:00,74.2,66.9,29.67,SSW,199,1.0,18.0,78,0.00,,SCT110,0.07,316.00,VWS V14.01,2013-05-30 15:25:00,
2013-05-30 10:26:00,74.4,68.2,29.67,East,89,7.0,8.0,81,0.00,,BKN026,0.07,316.00,VWS V14.01,2013-05-30 15:26:00,
2013-05-30 10:30:00,74.9,67.9,29.67,SSE,148,2.0,8.0,79,0.00,,SCT110,0.07,954.00,VWS V14.01,2013-05-30 15:30:00,
2013-05-30 10:31:00,74.9,67.6,29.67,East,89,3.0,4.0,78,0.00,,BKN026,0.07,350.00,VWS V14.01,2013-05-30 15:31:00,
2013-05-30 10:35:00,75.4,68.8,29.67,NW,321,3.0,13.0,80,0.00,,SCT110,0.07,350.00,VWS V14.01,2013-05-30 15:35:00,
2013-05-30 10:36:00,75.6,69.0,29.67,ENE,71,4.0,11.0,80,0.00,,BKN026,0.07,350.00,VWS V14.01,2013-05-30 15:36:00,
2013-05-30 10:40:00,76.3,68.2,29.67,SSE,160,5.0,11.0,76,0.00,,SCT110,0.07,350.00,VWS V14.01,2013-05-30 15:40:00,
2013-05-30 10:41:00,76.4,67.9,29.67,SE,142,1.0,5.0,75,0.00,,BKN026,0.07,350.00,VWS V14.01,2013-05-30 15:41:00,
2013-05-30 10:45:00,76.5,68.8,29.67,ESE,111,5.0,9.0,77,0.00,,SCT110,0.07,253.00,VWS V14.01,2013-05-30 15:45:00,
2013-05-30 10:46:00,76.6,68.1,29.67,NNW,327,2.0,6.0,75,0.00,,BKN035,0.07,253.00,VWS V14.01,2013-05-30 15:46:00,
2013-05-30 10:50:00,76.9,68.0,29.67,SSW,194,6.0,7.0,74,0.00,,SCT110,0.07,805.00,VWS V14.01,2013-05-30 15:50:00,
2013-05-30 10:51:00,77.0,68.5,29.67,South,180,3.0,7.0,75,0.00,,BKN035,0.07,805.00,VWS V14.01,2013-05-30 15:51:00,
2013-05-30 10:55:00,77.5,68.2,29.67,ESE,103,0.0,9.0,73,0.00,,SCT110,0.07,805.00,VWS V14.01,2013-05-30 15:55:00,
2013-05-30 10:56:00,77.8,67.7,29.67,North,5,3.0,6.0,71,0.00,,BKN035,0.07,805.00,VWS V14.01,2013-05-30 15:56:00,
2013-05-30 11:00:00,78.1,68.3,29.67,SSE,159,3.0,10.0,72,0.00,,SCT110,0.07,680.00,VWS V14.01,2013-05-30 16:00:00,
2013-05-30 11:01:00,78.1,67.9,29.67,North,351,4.0,8.0,71,0.00,,BKN035,0.07,680.00,VWS V14.01,2013-05-30 16:01:00,
2013-05-30 11:05:00,78.4,67.4,29.67,ESE,109,3.0,9.0,69,0.00,,SCT110,0.07,991.00,VWS V14.01,2013-05-30 16:05:00,
2013-05-30 11:06:00,78.4,68.2,29.67,ENE,76,1.0,3.0,71,0.00,,BKN033,0.07,991.00,VWS V14.01,2013-05-30 16:06:00,
2013-05-30 11:10:00,78.7,68.1,29.67,SSE,153,4.0,10.0,70,0.00,,SCT110,0.07,330.00,VWS V14.01,2013-05-30 16:10:00,
2013-05-30 11:11:00,78.5,67.9,29.67,East,85,8.0,8.0,70,0.00,,BKN033,0.07,330.00,VWS V14.01,2013-05-30 16:11:00,
2013-05-30 11:15:00,77.9,66.9,29.67,West,259,4.0,13.0,69,0.00,,SCT110,0.07,448.00,VWS V14.01,2013-05-30 16:15:00,
2013-05-30 11:16:00,77.7,66.7,29.67,SE,130,3.0,6.0,69,0.00,,BKN033,0.07,448.00,VWS V14.01,2013-05-30 16:16:00,
2013-05-30 11:20:00,77.4,67.3,29.67,WSW,238,1.0,7.0,71,0.00,,SCT110,0.07,311.00,VWS V14.01,2013-05-30 16:20:00,
2013-05-30 11:22:00,77.3,67.6,29.67,West,271,6.0,6.0,72,0.00,,BKN033,0.07,294.00,VWS V14.01,2013-05-30 16:22:00,
2013-05-30 11:25:00,77.3,67.6,29.67,NNE,33,0.0,6.0,72,0.00,,SCT110,0.07,211.00,VWS V14.01,2013-05-30 16:25:00,
2013-05-30 11:27:00,77.2,67.1,29.67,NE,45,2.0,9.0,71,0.00,,BKN033,0.07,276.00,VWS V14.01,2013-05-30 16:27:00,
2013-05-30 11:30:00,77.1,66.6,29.67,West,281,3.0,9.0,70,0.00,,SCT110,0.07,294.00,VWS V14.01,2013-05-30 16:30:00,
2013-05-30 11:32:00,77.2,67.1,29.67,West,269,4.0,10.0,71,0.00,,BKN033,0.07,250.00,VWS V14.01,2013-05-30 16:32:00,
2013-05-30 11:35:00,77.3,65.9,29.67,ESE,119,2.0,13.0,68,0.00,,SCT110,0.07,220.00,VWS V14.01,2013-05-30 16:35:00,
2013-05-30 11:37:00,77.2,65.8,29.67,ESE,112,4.0,7.0,68,0.00,,BKN033,0.07,211.00,VWS V14.01,2013-05-30 16:37:00,
2013-05-30 11:40:00,77.2,66.2,29.67,SW,234,3.0,11.0,69,0.00,,SCT110,0.07,287.00,VWS V14.01,2013-05-30 16:40:00,
2013-05-30 11:42:00,77.3,65.9,29.67,SW,223,2.0,8.0,68,0.00,,BKN033,0.07,318.00,VWS V14.01,2013-05-30 16:42:00,
2013-05-30 11:45:00,77.5,66.1,29.67,NW,325,1.0,9.0,68,0.00,,SCT110,0.07,343.00,VWS V14.01,2013-05-30 16:45:00,
2013-05-30 11:47:00,77.7,65.9,29.67,South,178,5.0,15.0,67,0.00,,BKN033,0.07,343.00,VWS V14.01,2013-05-30 16:47:00,
2013-05-30 11:50:00,77.5,66.1,29.67,WSW,245,5.0,15.0,68,0.00,,SCT110,0.07,230.00,VWS V14.01,2013-05-30 16:50:00,
2013-05-30 11:52:00,77.5,65.7,29.67,SW,219,2.0,6.0,67,0.00,,BKN033,0.07,257.00,VWS V14.01,2013-05-30 16:52:00,
2013-05-30 11:55:00,77.5,65.7,29.67,SSW,198,4.0,8.0,67,0.00,,SCT110,0.07,329.00,VWS V14.01,2013-05-30 16:55:00,
2013-05-30 11:57:00,77.6,66.6,29.67,NW,324,2.0,6.0,69,0.00,,BKN033,0.07,348.00,VWS V14.01,2013-05-30 16:57:00,
2013-05-30 12:00:00,77.6,66.6,29.67,ESE,105,4.0,7.0,69,0.00,,SCT110,0.07,243.00,VWS V14.01,2013-05-30 17:00:00,
2013-05-30 12:02:00,77.7,66.3,29.67,SW,216,0.0,6.0,68,0.00,,OVC075,0.07,399.00,VWS V14.01,2013-05-30 17:02:00,
2013-05-30 12:05:00,77.9,66.9,29.67,WNW,302,5.0,7.0,69,0.00,,SCT110,0.07,376.00,VWS V14.01,2013-05-30 17:05:00,
2013-05-30 12:07:00,78.0,67.0,29.67,NE,38,4.0,8.0,69,0.00,,OVC075,0.07,418.00,VWS V14.01,2013-05-30 17:07:00,
2013-05-30 12:10:00,78.5,67.5,29.67,SSE,165,2.0,8.0,69,0.00,,SCT110,0.07,436.00,VWS V14.01,2013-05-30 17:10:00,
2013-05-30 12:12:00,78.8,67.8,29.67,ENE,61,1.0,5.0,69,0.00,,OVC075,0.07,436.00,VWS V14.01,2013-05-30 17:12:00,
2013-05-30 12:15:00,78.8,67.4,29.66,East,82,3.0,7.0,68,0.00,,SCT110,0.07,408.00,VWS V14.01,2013-05-30 17:15:00,
2013-05-30 12:17:00,78.8,66.9,29.66,North,351,0.0,9.0,67,0.00,,OVC085,0.07,341.00,VWS V14.01,2013-05-30 17:17:00,
2013-05-30 12:20:00,78.5,65.8,29.66,SE,128,2.0,9.0,65,0.00,,SCT110,0.07,174.00,VWS V14.01,2013-05-30 17:20:00,
2013-05-30 12:22:00,78.2,66.4,29.66,South,174,1.0,6.0,67,0.00,,OVC085,0.07,207.00,VWS V14.01,2013-05-30 17:22:00,
2013-05-30 12:25:00,77.8,66.4,29.66,SW,232,6.0,7.0,68,0.00,,SCT110,0.07,320.00,VWS V14.01,2013-05-30 17:25:00,
2013-05-30 12:27:00,77.7,66.3,29.66,NW,308,4.0,7.0,68,0.00,,OVC085,0.07,272.00,VWS V14.01,2013-05-30 17:27:00,
2013-05-30 12:30:00,77.7,65.9,29.66,WNW,292,3.0,7.0,67,0.00,,SCT110,0.07,292.00,VWS V14.01,2013-05-30 17:30:00,
2013-05-30 12:32:00,77.8,66.4,29.66,ENE,58,0.0,6.0,68,0.00,,OVC085,0.07,218.00,VWS V14.01,2013-05-30 17:32:00,
2013-05-30 12:35:00,77.7,66.7,29.66,NW,307,6.0,6.0,69,0.00,,SCT110,0.07,200.00,VWS V14.01,2013-05-30 17:35:00,
2013-05-30 12:37:00,77.5,66.1,29.66,SW,221,1.0,8.0,68,0.00,,OVC085,0.07,281.00,VWS V14.01,2013-05-30 17:37:00,
2013-05-30 12:40:00,77.7,67.6,29.66,ESE,103,2.0,8.0,71,0.00,,SCT110,0.07,338.00,VWS V14.01,2013-05-30 17:40:00,
2013-05-30 12:42:00,78.2,66.8,29.66,ESE,102,3.0,7.0,68,0.00,,OVC085,0.07,482.00,VWS V14.01,2013-05-30 17:42:00,
2013-05-30 12:45:00,79.1,68.1,29.64,SE,129,0.0,7.0,69,0.00,,SCT110,0.07,482.00,VWS V14.01,2013-05-30 17:45:00,
2013-05-30 12:47:00,79.3,66.5,29.64,East,92,9.0,9.0,65,0.00,,OVC085,0.07,309.00,VWS V14.01,2013-05-30 17:47:00,
2013-05-30 12:50:00,79.4,67.1,29.64,NNW,327,2.0,9.0,66,0.00,,SCT110,0.07,981.00,VWS V14.01,2013-05-30 17:50:00,
2013-05-30 12:52:00,79.9,68.0,29.64,WNW,298,4.0,7.0,67,0.00,,OVC085,0.07,977.00,VWS V14.01,2013-05-30 17:52:00,
2013-05-30 12:55:00,80.4,68.4,29.64,WSW,252,4.0,7.0,67,0.00,,SCT110,0.07,967.00,VWS V14.01,2013-05-30 17:55:00,
2013-05-30 12:57:00,80.7,67.4,29.64,East,98,2.0,5.0,64,0.00,,OVC085,0.07,954.00,VWS V14.01,2013-05-30 17:57:00,
2013-05-30 13:00:00,81.1,66.9,29.62,SE,129,6.0,11.0,62,0.00,,SCT110,0.07,1035.00,VWS V14.01,2013-05-30 18:00:00,
2013-05-30 13:02:00,81.3,69.3,29.62,East,91,3.0,9.0,67,0.00,,SCT055,0.07,970.00,VWS V14.01,2013-05-30 18:02:00,
2013-05-30 13:05:00,81.6,68.7,29.62,NW,304,1.0,9.0,65,0.00,,SCT110,0.07,977.00,VWS V14.01,2013-05-30 18:05:00,
2013-05-30 13:07:00,81.6,68.2,29.62,South,188,9.0,10.0,64,0.00,,SCT055,0.07,1037.00,VWS V14.01,2013-05-30 18:07:00,
2013-05-30 13:10:00,81.4,67.1,29.62,NE,44,4.0,10.0,62,0.00,,SCT110,0.07,1095.00,VWS V14.01,2013-05-30 18:10:00,
2013-05-30 13:12:00,81.3,67.5,29.62,ENE,75,3.0,9.0,63,0.00,,SCT055,0.07,807.00,VWS V14.01,2013-05-30 18:12:00,
2013-05-30 13:15:00,81.5,67.7,29.62,WSW,253,9.0,10.0,63,0.00,,SCT110,0.07,1046.00,VWS V14.01,2013-05-30 18:15:00,
2013-05-30 13:17:00,81.7,66.9,29.62,NW,306,6.0,14.0,61,0.00,,SCT055,0.07,1023.00,VWS V14.01,2013-05-30 18:17:00,
2013-05-30 13:20:00,81.5,66.8,29.62,WNW,282,11.0,14.0,61,0.00,,SCT110,0.07,515.00,VWS V14.01,2013-05-30 18:20:00,
2013-05-30 13:23:00,81.2,67.9,29.62,WSW,248,3.0,12.0,64,0.00,,SCT055,0.07,515.00,VWS V14.01,2013-05-30 18:23:00,
2013-05-30 13:25:00,81.6,68.2,29.62,South,190,2.0,12.0,64,0.00,,SCT110,0.07,515.00,VWS V14.01,2013-05-30 18:25:00,
2013-05-30 13:28:00,81.8,67.5,29.62,ENE,71,1.0,9.0,62,0.00,,SCT055,0.07,515.00,VWS V14.01,2013-05-30 18:28:00,
2013-05-30 13:30:00,81.4,67.6,29.63,SSE,158,5.0,9.0,63,0.00,,SCT110,0.07,374.00,VWS V14.01,2013-05-30 18:30:00,
2013-05-30 13:33:00,80.8,67.0,29.63,West,261,8.0,10.0,63,0.00,,SCT055,0.07,374.00,VWS V14.01,2013-05-30 18:33:00,
2013-05-30 13:35:00,80.3,66.6,29.63,West,262,1.0,12.0,63,0.00,,SCT110,0.07,211.00,VWS V14.01,2013-05-30 18:35:00,
2013-05-30 13:38:00,79.8,67.0,29.63,SE,129,5.0,18.0,65,0.00,,SCT055,0.07,241.00,VWS V14.01,2013-05-30 18:38:00,
2013-05-30 13:40:00,79.5,66.7,29.63,SSE,166,2.0,18.0,65,0.00,,SCT110,0.07,241.00,VWS V14.01,2013-05-30 18:40:00,
2013-05-30 13:43:00,79.6,66.4,29.63,WSW,238,3.0,11.0,64,0.00,,SCT055,0.07,517.00,VWS V14.01,2013-05-30 18:43:00,
2013-05-30 13:45:00,79.7,66.5,29.64,East,99,3.0,11.0,64,0.00,,SCT110,0.07,376.00,VWS V14.01,2013-05-30 18:45:00,
2013-05-30 13:48:00,79.6,66.8,29.64,West,268,1.0,15.0,65,0.00,,SCT055,0.07,262.00,VWS V14.01,2013-05-30 18:48:00,
2013-05-30 13:50:00,79.3,66.5,29.64,North,5,3.0,15.0,65,0.00,,SCT110,0.07,364.00,VWS V14.01,2013-05-30 18:50:00,
2013-05-30 13:53:00,79.0,66.2,29.64,SSE,149,6.0,10.0,65,0.00,,SCT055,0.07,322.00,VWS V14.01,2013-05-30 18:53:00,
2013-05-30 13:55:00,78.9,66.2,29.64,NNW,338,4.0,12.0,65,0.00,,SCT110,0.07,483.00,VWS V14.01,2013-05-30 18:55:00,
2013-05-30 13:58:00,78.9,66.2,29.64,SE,137,5.0,13.0,65,0.00,,SCT055,0.07,425.00,VWS V14.01,2013-05-30 18:58:00,
2013-05-30 14:00:00,78.9,66.2,29.65,SW,220,3.0,13.0,65,0.00,,SCT110,0.07,561.00,VWS V14.01,2013-05-30 19:00:00,
2013-05-30 14:03:00,79.0,67.1,29.65,ENE,77,1.0,8.0,67,0.00,,BKN060,0.07,673.00,VWS V14.01,2013-05-30 19:03:00,
2013-05-30 14:05:00,79.3,66.5,29.65,SSW,202,3.0,10.0,65,0.00,,SCT110,0.07,589.00,VWS V14.01,2013-05-30 19:05:00,
2013-05-30 14:08:00,79.2,66.9,29.65,WNW,283,7.0,8.0,66,0.00,,BKN060,0.07,671.00,VWS V14.01,2013-05-30 19:08:00,
2013-05-30 14:10:00,79.3,67.0,29.65,ENE,69,4.0,10.0,66,0.00,,SCT110,0.07,701.00,VWS V14.01,2013-05-30 19:10:00,
2013-05-30 14:13:00,79.3,67.0,29.65,SW,225,6.0,10.0,66,0.00,,BKN060,0.07,622.00,VWS V14.01,2013-05-30 19:13:00,
2013-05-30 14:15:00,79.4,67.1,29.64,NNE,13,3.0,10.0,66,0.00,,SCT110,0.07,800.00,VWS V14.01,2013-05-30 19:15:00,
2013-05-30 14:18:00,79.6,65.9,29.64,SSE,168,4.0,11.0,63,0.00,,BKN060,0.07,686.00,VWS V14.01,2013-05-30 19:18:00,
2013-05-30 14:20:00,79.7,66.5,29.64,SW,220,6.0,11.0,64,0.00,,SCT110,0.07,643.00,VWS V14.01,2013-05-30 19:20:00,
2013-05-30 14:23:00,79.6,66.4,29.64,East,101,5.0,13.0,64,0.00,,BKN060,0.07,684.00,VWS V14.01,2013-05-30 19:23:00,
2013-05-30 14:25:00,79.4,65.7,29.64,SW,231,9.0,13.0,63,0.00,,SCT110,0.07,724.00,VWS V14.01,2013-05-30 19:25:00,
2013-05-30 14:28:00,79.4,64.8,29.64,NNW,331,9.0,9.0,61,0.00,,BKN060,0.07,722.00,VWS V14.01,2013-05-30 19:28:00,
2013-05-30 14:30:00,79.2,64.1,29.64,WNW,290,10.0,11.0,60,0.00,,SCT110,0.07,722.00,VWS V14.01,2013-05-30 19:30:00,
2013-05-30 14:33:00,78.4,63.8,29.64,SW,232,6.0,13.0,61,0.00,,BKN060,0.07,374.00,VWS V14.01,2013-05-30 19:33:00,
2013-05-30 14:35:00,78.0,62.5,29.64,ENE,74,4.0,13.0,59,0.00,,SCT110,0.07,415.00,VWS V14.01,2013-05-30 19:35:00,
2013-05-30 14:38:00,77.8,62.8,29.64,WSW,254,3.0,9.0,60,0.00,,BKN060,0.07,425.00,VWS V14.01,2013-05-30 19:38:00,
2013-05-30 14:40:00,77.6,62.6,29.64,West,273,4.0,15.0,60,0.00,,SCT110,0.07,439.00,VWS V14.01,2013-05-30 19:40:00,
2013-05-30 14:43:00,77.5,60.6,29.64,SSW,194,7.0,11.0,56,0.00,,BKN060,0.07,506.00,VWS V14.01,2013-05-30 19:43:00,
2013-05-30 14:45:00,77.5,61.1,29.65,SSE,155,3.0,16.0,57,0.00,,SCT110,0.07,557.00,VWS V14.01,2013-05-30 19:45:00,
2013-05-30 14:48:00,77.5,61.6,29.65,South,176,7.0,10.0,58,0.00,,BKN060,0.07,547.00,VWS V14.01,2013-05-30 19:48:00,
2013-05-30 14:50:00,77.5,61.6,29.65,West,261,7.0,10.0,58,0.00,,SCT110,0.07,485.00,VWS V14.01,2013-05-30 19:50:00,
2013-05-30 14:53:00,77.1,63.1,29.65,NNE,24,3.0,7.0,62,0.00,,BKN060,0.07,540.00,VWS V14.01,2013-05-30 19:53:00,
2013-05-30 14:55:00,77.1,64.0,29.65,WSW,249,5.0,8.0,64,0.00,,SCT110,0.07,548.00,VWS V14.01,2013-05-30 19:55:00,
2013-05-30 14:58:00,76.9,63.4,29.65,North,5,1.0,9.0,63,0.00,,BKN060,0.07,633.00,VWS V14.01,2013-05-30 19:58:00,
2013-05-30 15:00:00,76.9,62.9,29.63,East,100,3.0,18.0,62,0.00,,SCT110,0.07,724.00,VWS V14.01,2013-05-30 20:00:00,
2013-05-30 15:03:00,77.1,63.1,29.63,SSW,197,2.0,11.0,62,0.00,,FEW039,0.07,745.00,VWS V14.01,2013-05-30 20:03:00,
2013-05-30 15:05:00,77.4,62.9,29.63,South,170,1.0,11.0,61,0.00,,SCT110,0.07,800.00,VWS V14.01,2013-05-30 20:05:00,
2013-05-30 15:08:00,77.7,63.7,29.63,ESE,117,4.0,7.0,62,0.00,,FEW039,0.07,844.00,VWS V14.01,2013-05-30 20:08:00,
2013-05-30 15:10:00,77.7,62.2,29.63,SW,229,4.0,13.0,59,0.00,,SCT110,0.07,844.00,VWS V14.01,2013-05-30 20:10:00,
2013-05-30 15:13:00,77.7,63.2,29.63,NNW,329,0.0,8.0,61,0.00,,FEW039,0.07,821.00,VWS V14.01,2013-05-30 20:13:00,
2013-05-30 15:15:00,77.8,62.8,29.62,WNW,300,6.0,8.0,60,0.00,,SCT110,0.07,729.00,VWS V14.01,2013-05-30 20:15:00,
2013-05-30 15:18:00,77.4,62.9,29.62,East,92,2.0,7.0,61,0.00,,FEW039,0.07,942.00,VWS V14.01,2013-05-30 20:18:00,
2013-05-30 15:20:00,77.3,62.8,29.62,West,276,2.0,7.0,61,0.00,,SCT110,0.07,854.00,VWS V14.01,2013-05-30 20:20:00,
2013-05-30 15:23:00,76.8,61.9,29.62,NNW,330,1.0,8.0,60,0.00,,FEW039,0.07,339.00,VWS V14.01,2013-05-30 20:23:00,
2013-05-30 15:25:00,76.4,62.4,29.62,WSW,246,1.0,8.0,62,0.00,,SCT110,0.07,338.00,VWS V14.01,2013-05-30 20:25:00,
2013-05-30 15:28:00,75.9,63.7,29.62,SSW,200,3.0,3.0,66,0.00,,FEW039,0.07,345.00,VWS V14.01,2013-05-30 20:28:00,
2013-05-30 15:30:00,75.7,62.7,29.63,WNW,295,4.0,7.0,64,0.00,,SCT110,0.07,343.00,VWS V14.01,2013-05-30 20:30:00,
2013-05-30 15:33:00,75.5,62.0,29.63,WSW,237,6.0,8.0,63,0.00,,FEW039,0.07,381.00,VWS V14.01,2013-05-30 20:33:00,
2013-05-30 15:35:00,75.6,62.6,29.63,SSE,152,1.0,8.0,64,0.00,,SCT110,0.07,381.00,VWS V14.01,2013-05-30 20:35:00,
2013-05-30 15:39:00,76.4,62.9,29.63,ENE,74,4.0,7.0,63,0.00,,FEW039,0.07,381.00,VWS V14.01,2013-05-30 20:39:00,
2013-05-30 15:40:00,76.4,62.4,29.63,SW,231,7.0,9.0,62,0.00,,SCT110,0.07,396.00,VWS V14.01,2013-05-30 20:40:00,
2013-05-30 15:44:00,76.0,62.5,29.63,SSE,155,1.0,7.0,63,0.00,,FEW039,0.07,350.00,VWS V14.01,2013-05-30 20:44:00,
2013-05-30 15:45:00,75.8,62.3,29.63,SSW,211,1.0,7.0,63,0.00,,SCT110,0.07,352.00,VWS V14.01,2013-05-30 20:45:00,
2013-05-30 15:49:00,75.6,61.2,29.63,NE,38,2.0,10.0,61,0.00,,FEW039,0.07,281.00,VWS V14.01,2013-05-30 20:49:00,
2013-05-30 15:50:00,75.5,62.0,29.63,East,98,5.0,10.0,63,0.00,,SCT110,0.07,251.00,VWS V14.01,2013-05-30 20:50:00,
2013-05-30 15:54:00,74.9,61.0,29.63,ESE,122,3.0,7.0,62,0.00,,FEW039,0.07,243.00,VWS V14.01,2013-05-30 20:54:00,
2013-05-30 15:55:00,74.8,61.4,29.63,NW,308,1.0,7.0,63,0.00,,SCT110,0.07,271.00,VWS V14.01,2013-05-30 20:55:00,
2013-05-30 15:59:00,74.7,61.7,29.63,ESE,103,3.0,8.0,64,0.00,,FEW039,0.07,315.00,VWS V14.01,2013-05-30 20:59:00,
2013-05-30 16:00:00,74.7,60.8,29.64,ENE,68,1.0,10.0,62,0.00,,SCT110,0.07,332.00,VWS V14.01,2013-05-30 21:00:00,
2013-05-30 16:04:00,74.7,61.3,29.64,SE,131,2.0,6.0,63,0.00,,SCT110,0.07,345.00,VWS V14.01,2013-05-30 21:04:00,
2013-05-30 16:05:00,74.7,60.8,29.64,ENE,64,1.0,8.0,62,0.00,,SCT110,0.07,327.00,VWS V14.01,2013-05-30 21:05:00,
2013-05-30 16:09:00,74.6,61.6,29.64,NW,306,3.0,8.0,64,0.00,,SCT110,0.07,281.00,VWS V14.01,2013-05-30 21:09:00,
2013-05-30 16:10:00,74.4,61.4,29.64,SE,142,4.0,10.0,64,0.00,,SCT110,0.07,230.00,VWS V14.01,2013-05-30 21:10:00,
2013-05-30 16:14:00,74.1,60.7,29.64,ENE,67,1.0,11.0,63,0.00,,SCT110,0.07,149.00,VWS V14.01,2013-05-30 21:14:00,
2013-05-30 16:15:00,73.8,60.9,29.63,ESE,109,3.0,11.0,64,0.00,,SCT110,0.07,149.00,VWS V14.01,2013-05-30 21:15:00,
2013-05-30 16:19:00,73.3,60.8,29.63,SW,229,0.0,9.0,65,0.00,,SCT110,0.07,139.00,VWS V14.01,2013-05-30 21:19:00,
2013-05-30 16:20:00,73.1,61.1,29.63,East,82,3.0,9.0,66,0.00,,SCT110,0.07,139.00,VWS V14.01,2013-05-30 21:20:00,
2013-05-30 16:24:00,72.8,60.8,29.63,SW,227,4.0,8.0,66,0.00,,SCT110,0.07,216.00,VWS V14.01,2013-05-30 21:24:00,
2013-05-30 16:25:00,72.7,61.1,29.63,West,275,0.0,8.0,67,0.00,,SCT110,0.07,221.00,VWS V14.01,2013-05-30 21:25:00,
2013-05-30 16:29:00,72.5,61.3,29.63,WSW,242,1.0,7.0,68,0.00,,SCT110,0.07,190.00,VWS V14.01,2013-05-30 21:29:00,
2013-05-30 16:30:00,72.4,61.7,29.64,SSE,161,1.0,7.0,69,0.00,,SCT110,0.07,190.00,VWS V14.01,2013-05-30 21:30:00,
2013-05-30 16:34:00,72.1,61.0,29.64,ESE,102,1.0,8.0,68,0.00,,SCT110,0.07,130.00,VWS V14.01,2013-05-30 21:34:00,
2013-05-30 16:35:00,71.9,61.2,29.64,SSE,163,1.0,8.0,69,0.00,,SCT110,0.07,123.00,VWS V14.01,2013-05-30 21:35:00,
2013-05-30 16:39:00,71.6,61.3,29.64,NNE,32,0.0,5.0,70,0.00,,SCT110,0.07,178.00,VWS V14.01,2013-05-30 21:39:00,
2013-05-30 16:40:00,71.6,61.3,29.64,East,99,5.0,5.0,70,0.00,,SCT110,0.07,225.00,VWS V14.01,2013-05-30 21:40:00,
2013-05-30 16:44:00,71.7,61.8,29.64,ESE,107,3.0,5.0,71,0.00,,SCT110,0.07,200.00,VWS V14.01,2013-05-30 21:44:00,
2013-05-30 16:45:00,71.7,61.8,29.63,ESE,107,0.0,5.0,71,0.00,,SCT110,0.07,234.00,VWS V14.01,2013-05-30 21:45:00,
2013-05-30 16:49:00,71.8,61.9,29.63,SE,127,2.0,7.0,71,0.00,,SCT110,0.07,185.00,VWS V14.01,2013-05-30 21:49:00,
2013-05-30 16:50:00,71.8,61.5,29.63,ESE,118,0.0,7.0,70,0.00,,SCT110,0.07,165.00,VWS V14.01,2013-05-30 21:50:00,
2013-05-30 16:54:00,71.6,62.1,29.63,SW,229,2.0,7.0,72,0.00,,SCT110,0.07,83.00,VWS V14.01,2013-05-30 21:54:00,
2013-05-30 16:55:00,71.5,62.0,29.63,ENE,72,0.0,7.0,72,0.00,,SCT110,0.07,54.00,VWS V14.01,2013-05-30 21:55:00,
2013-05-30 16:59:00,71.2,61.7,29.63,ENE,69,0.0,2.0,72,0.00,,SCT110,0.07,32.00,VWS V14.01,2013-05-30 21:59:00,
2013-05-30 17:00:00,71.1,61.6,29.63,NW,304,2.0,5.0,72,0.00,,SCT110,0.07,33.00,VWS V14.01,2013-05-30 22:00:00,
2013-05-30 17:04:00,70.8,62.1,29.63,West,267,0.0,5.0,74,0.00,,RA,0.07,18.00,VWS V14.01,2013-05-30 22:04:00,
2013-05-30 17:05:00,70.7,62.0,29.63,ESE,111,3.0,5.0,74,0.00,,SCT110,0.07,14.00,VWS V14.01,2013-05-30 22:05:00,
2013-05-30 17:09:00,69.8,62.6,29.63,ESE,104,3.0,4.0,78,0.02,,RA,0.09,16.00,VWS V14.01,2013-05-30 22:09:00,
2013-05-30 17:10:00,69.6,62.8,29.63,East,101,2.0,4.0,79,0.04,,SCT110,0.11,18.00,VWS V14.01,2013-05-30 22:10:00,
2013-05-30 17:14:00,68.5,63.1,29.62,East,82,1.0,5.0,83,0.08,,RA,0.15,14.00,VWS V14.01,2013-05-30 22:14:00,
2013-05-30 17:15:00,68.4,63.4,29.62,ESE,111,2.0,5.0,84,0.08,,SCT110,0.15,18.00,VWS V14.01,2013-05-30 22:15:00,
2013-05-30 17:19:00,67.5,63.5,29.62,South,184,0.0,3.0,87,0.09,,OVC100,0.16,16.00,VWS V14.01,2013-05-30 22:19:00,
2013-05-30 17:20:00,67.4,63.7,29.62,South,184,0.0,3.0,88,0.09,,SCT110,0.16,14.00,VWS V14.01,2013-05-30 22:20:00,
2013-05-30 17:24:00,67.1,63.8,29.62,SE,134,0.0,4.0,89,0.09,,OVC100,0.16,12.00,VWS V14.01,2013-05-30 22:24:00,
2013-05-30 17:25:00,67.1,63.8,29.62,SE,134,0.0,4.0,89,0.09,,SCT110,0.16,12.00,VWS V14.01,2013-05-30 22:25:00,
2013-05-30 17:29:00,66.9,64.2,29.63,SE,134,0.0,1.0,91,0.10,,OVC100,0.17,7.00,VWS V14.01,2013-05-30 22:29:00,
2013-05-30 17:30:00,66.9,64.2,29.63,SE,134,0.0,1.0,91,0.11,,SCT110,0.18,7.00,VWS V14.01,2013-05-30 22:30:00,
2013-05-30 17:34:00,66.6,64.2,29.63,SE,133,0.0,0.0,92,0.18,, +RA,0.25,5.00,VWS V14.01,2013-05-30 22:34:00,
2013-05-30 17:35:00,66.6,64.2,29.63,SE,133,0.0,0.0,92,0.18,,SCT110,0.25,7.00,VWS V14.01,2013-05-30 22:35:00,
2013-05-30 17:39:00,66.4,64.3,29.63,SE,133,0.0,1.0,93,0.19,, +RA,0.26,12.00,VWS V14.01,2013-05-30 22:39:00,
2013-05-30 17:40:00,66.3,64.2,29.63,SE,133,0.0,1.0,93,0.19,,SCT110,0.26,9.00,VWS V14.01,2013-05-30 22:40:00,
2013-05-30 17:44:00,66.3,64.5,29.63,ESE,113,2.0,3.0,94,0.25,, +RA,0.32,9.00,VWS V14.01,2013-05-30 22:44:00,
2013-05-30 17:45:00,66.3,64.5,29.63,East,99,3.0,4.0,94,0.28,,SCT110,0.35,9.00,VWS V14.01,2013-05-30 22:45:00,
2013-05-30 17:50:00,66.2,64.1,29.63,ESE,103,1.0,8.0,93,0.48,,SCT110,0.55,7.00,VWS V14.01,2013-05-30 22:50:00,
2013-05-30 17:55:00,66.2,64.4,29.63,ESE,115,4.0,4.0,94,0.54,,SCT110,0.61,5.00,VWS V14.01,2013-05-30 22:55:00,
2013-05-30 18:00:00,66.1,64.3,29.62,ESE,121,0.0,5.0,94,0.58,, +RA,0.65,5.00,VWS V14.01,2013-05-30 23:00:00,
2013-05-30 18:05:00,66.2,64.4,29.62,ESE,103,0.0,2.0,94,0.58,,SCT110,0.65,19.00,VWS V14.01,2013-05-30 23:05:00,
2013-05-30 18:10:00,66.4,64.6,29.62,East,98,0.0,2.0,94,0.58,,SCT110,0.65,5.00,VWS V14.01,2013-05-30 23:10:00,
2013-05-30 18:15:00,66.4,64.9,29.65,SSE,167,0.0,2.0,95,0.54,,SCT110,0.65,0.00,VWS V14.01,2013-05-30 23:15:00,
2013-05-30 18:20:00,65.9,63.8,29.65,SSW,205,1.0,3.0,93,0.50,,SCT110,0.65,0.00,VWS V14.01,2013-05-30 23:20:00,
2013-05-30 18:25:00,65.5,63.7,29.65,SSW,205,0.0,2.0,94,0.49,,SCT110,0.65,0.00,VWS V14.01,2013-05-30 23:25:00,
2013-05-30 18:26:00,65.4,63.6,29.65,SSW,205,0.0,1.0,94,0.49,,,0.65,0.00,VWS V14.01,2013-05-30 23:26:00,
2013-05-30 18:30:00,65.2,63.4,29.69,SSW,206,1.0,2.0,94,0.50,,SCT110,0.66,0.00,VWS V14.01,2013-05-30 23:30:00,
2013-05-30 18:31:00,65.1,63.3,29.69,SSW,206,1.0,2.0,94,0.48,,,0.66,0.00,VWS V14.01,2013-05-30 23:31:00,
2013-05-30 18:35:00,64.9,63.1,29.69,SSW,206,3.0,3.0,94,0.48,,SCT110,0.66,0.00,VWS V14.01,2013-05-30 23:35:00,
2013-05-30 18:36:00,64.8,63.0,29.69,SSW,207,0.0,5.0,94,0.41,,,0.66,0.00,VWS V14.01,2013-05-30 23:36:00,
2013-05-30 18:40:00,64.6,62.8,29.69,SSW,207,0.0,5.0,94,0.41,,SCT110,0.66,0.00,VWS V14.01,2013-05-30 23:40:00,
2013-05-30 18:42:00,64.5,62.7,29.69,SSW,209,2.0,3.0,94,0.42,,,0.68,0.00,VWS V14.01,2013-05-30 23:42:00,
2013-05-30 18:45:00,64.4,62.9,29.67,SSE,153,2.0,3.0,95,0.43,,SCT110,0.69,0.00,VWS V14.01,2013-05-30 23:45:00,
2013-05-30 18:47:00,64.3,62.8,29.67,SSE,151,0.0,3.0,95,0.34,,,0.69,0.00,VWS V14.01,2013-05-30 23:47:00,
2013-05-30 18:50:00,64.3,62.8,29.67,ENE,60,1.0,3.0,95,0.34,,SCT110,0.69,0.00,VWS V14.01,2013-05-30 23:50:00,
2013-05-30 18:52:00,64.3,62.8,29.67,ENE,60,0.0,1.0,95,0.14,,,0.69,0.00,VWS V14.01,2013-05-30 23:52:00,
2013-05-30 18:55:00,64.2,62.7,29.67,East,86,0.0,1.0,95,0.14,,SCT110,0.69,0.00,VWS V14.01,2013-05-30 23:55:00,
2013-05-30 18:57:00,64.2,62.7,29.67,East,86,0.0,0.0,95,0.08,,,0.69,0.00,VWS V14.01,2013-05-30 23:57:00,
2013-05-30 19:00:00,64.2,63.0,29.65,ESE,105,0.0,1.0,96,0.08,,SCT110,0.69,0.00,VWS V14.01,2013-05-31 00:00:00,
2013-05-30 19:02:00,64.1,62.6,29.65,ESE,105,0.0,1.0,95,0.04,, +RA,0.69,0.00,VWS V14.01,2013-05-31 00:02:00,
2013-05-30 19:05:00,64.0,62.5,29.65,ESE,105,0.0,1.0,95,0.04,,SCT110,0.69,0.00,VWS V14.01,2013-05-31 00:05:00,
2013-05-30 19:07:00,64.0,62.5,29.65,ESE,105,0.0,2.0,95,0.04,, +RA,0.69,0.00,VWS V14.01,2013-05-31 00:07:00,
2013-05-30 19:10:00,64.1,62.9,29.65,ESE,105,1.0,2.0,96,0.05,,SCT110,0.70,0.00,VWS V14.01,2013-05-31 00:10:00,
2013-05-30 19:12:00,64.1,62.9,29.65,West,267,2.0,2.0,96,0.06,, +RA,0.71,0.00,VWS V14.01,2013-05-31 00:12:00,
2013-05-30 19:15:00,64.1,62.9,29.72,West,268,1.0,2.0,96,0.12,,SCT110,0.77,0.00,VWS V14.01,2013-05-31 00:15:00,
2013-05-30 19:17:00,64.0,62.8,29.72,SSE,147,0.0,2.0,96,0.20,,,0.85,0.00,VWS V14.01,2013-05-31 00:17:00,
2013-05-30 19:20:00,63.9,62.7,29.72,SE,132,0.0,2.0,96,0.23,,SCT110,0.88,0.00,VWS V14.01,2013-05-31 00:20:00,
2013-05-30 19:22:00,63.8,62.6,29.72,SE,129,0.0,1.0,96,0.27,,,0.92,0.00,VWS V14.01,2013-05-31 00:22:00,
2013-05-30 19:25:00,63.8,62.6,29.72,SE,129,2.0,2.0,96,0.29,,SCT110,0.94,0.00,VWS V14.01,2013-05-31 00:25:00,
2013-05-30 19:27:00,63.6,62.4,29.72,SE,140,0.0,3.0,96,0.32,,,0.97,0.00,VWS V14.01,2013-05-31 00:27:00,
2013-05-30 19:30:00,63.4,62.0,29.70,SE,143,0.0,3.0,95,0.40,,SCT110,1.05,0.00,VWS V14.01,2013-05-31 00:30:00,
2013-05-30 19:32:00,63.4,62.0,29.70,SE,143,0.0,2.0,95,0.43,,,1.09,0.00,VWS V14.01,2013-05-31 00:32:00,
2013-05-30 19:35:00,63.3,62.1,29.70,SE,143,0.0,2.0,96,0.46,,SCT110,1.12,0.00,VWS V14.01,2013-05-31 00:35:00,
2013-05-30 19:37:00,63.2,62.0,29.70,SE,143,0.0,1.0,96,0.48,,,1.14,0.00,VWS V14.01,2013-05-31 00:37:00,
2013-05-30 19:40:00,63.1,61.9,29.70,SE,143,0.0,2.0,96,0.54,,SCT110,1.20,0.00,VWS V14.01,2013-05-31 00:40:00,
2013-05-30 19:42:00,63.0,61.8,29.70,SE,143,0.0,0.0,96,0.55,,,1.21,0.00,VWS V14.01,2013-05-31 00:42:00,
2013-05-30 19:45:00,63.0,61.8,29.68,SE,143,0.0,1.0,96,0.57,,SCT110,1.23,0.00,VWS V14.01,2013-05-31 00:45:00,
2013-05-30 19:47:00,62.9,61.8,29.68,SE,143,0.0,0.0,96,0.56,,,1.25,0.00,VWS V14.01,2013-05-31 00:47:00,
2013-05-30 19:50:00,62.8,61.7,29.68,SE,143,0.0,1.0,96,0.57,,SCT110,1.26,0.00,VWS V14.01,2013-05-31 00:50:00,
2013-05-30 19:52:00,62.9,61.8,29.68,SE,143,0.0,0.0,96,0.59,,,1.28,0.00,VWS V14.01,2013-05-31 00:52:00,
2013-05-30 19:55:00,62.9,61.8,29.68,SE,143,0.0,0.0,96,0.60,,SCT110,1.29,0.00,VWS V14.01,2013-05-31 00:55:00,
2013-05-30 19:57:00,62.9,61.8,29.68,SE,143,0.0,0.0,96,0.60,,,1.29,0.00,VWS V14.01,2013-05-31 00:57:00,
2013-05-30 20:00:00,62.7,61.5,29.70,SE,143,0.0,0.0,96,0.63,,SCT110,1.32,0.00,VWS V14.01,2013-05-31 01:00:00,
2013-05-30 20:02:00,62.7,61.5,29.70,WSW,256,1.0,4.0,96,0.70,,RA,1.39,0.00,VWS V14.01,2013-05-31 01:02:00,
2013-05-30 20:05:00,62.7,61.8,29.70,WSW,250,4.0,5.0,97,0.77,,SCT110,1.46,0.00,VWS V14.01,2013-05-31 01:05:00,
2013-05-30 20:07:00,62.7,61.8,29.70,WSW,241,5.0,5.0,97,0.86,,RA,1.55,0.00,VWS V14.01,2013-05-31 01:07:00,
2013-05-30 20:10:00,62.5,61.3,29.70,SE,140,2.0,8.0,96,0.98,,SCT110,1.67,0.00,VWS V14.01,2013-05-31 01:10:00,
2013-05-30 20:12:00,62.3,61.2,29.70,WNW,294,2.0,5.0,96,1.03,,RA,1.73,0.00,VWS V14.01,2013-05-31 01:12:00,
2013-05-30 20:15:00,62.2,61.0,29.67,ESE,108,1.0,7.0,96,1.09,,SCT110,1.79,0.00,VWS V14.01,2013-05-31 01:15:00,
2013-05-30 20:17:00,62.2,61.0,29.67,WSW,247,5.0,6.0,96,1.05,,,1.82,0.00,VWS V14.01,2013-05-31 01:17:00,
2013-05-30 20:20:00,62.3,61.2,29.67,NE,38,0.0,6.0,96,1.06,,SCT110,1.83,0.00,VWS V14.01,2013-05-31 01:20:00,
2013-05-30 20:22:00,62.4,61.2,29.67,South,190,1.0,4.0,96,0.96,,,1.84,0.00,VWS V14.01,2013-05-31 01:22:00,
2013-05-30 20:25:00,62.5,61.3,29.67,South,189,0.0,4.0,96,0.96,,SCT110,1.84,0.00,VWS V14.01,2013-05-31 01:25:00,
2013-05-30 20:27:00,62.7,61.5,29.67,South,189,1.0,1.0,96,0.90,,,1.84,0.00,VWS V14.01,2013-05-31 01:27:00,
2013-05-30 20:30:00,62.7,61.5,29.64,South,189,0.0,1.0,96,0.91,,SCT110,1.85,0.00,VWS V14.01,2013-05-31 01:30:00,
2013-05-30 20:33:00,62.7,61.5,29.64,South,189,0.0,0.0,96,0.80,,OVC120,1.85,0.00,VWS V14.01,2013-05-31 01:33:00,
2013-05-30 20:35:00,62.7,61.8,29.64,South,189,0.0,0.0,97,0.81,,SCT110,1.86,0.00,VWS V14.01,2013-05-31 01:35:00,
2013-05-30 20:38:00,62.8,61.9,29.64,South,189,1.0,1.0,97,0.74,,OVC120,1.86,0.00,VWS V14.01,2013-05-31 01:38:00,
2013-05-30 20:40:00,62.7,61.8,29.64,South,180,0.0,1.0,97,0.74,,SCT110,1.86,0.00,VWS V14.01,2013-05-31 01:40:00,
2013-05-30 20:43:00,62.7,61.8,29.64,SE,141,0.0,2.0,97,0.66,,OVC120,1.86,0.00,VWS V14.01,2013-05-31 01:43:00,
2013-05-30 20:45:00,62.7,61.8,29.66,East,94,1.0,2.0,97,0.66,,SCT110,1.86,0.00,VWS V14.01,2013-05-31 01:45:00,
2013-05-30 20:48:00,62.7,61.8,29.66,East,94,1.0,1.0,97,0.63,,BKN100,1.86,0.00,VWS V14.01,2013-05-31 01:48:00,
2013-05-30 20:50:00,62.6,61.7,29.66,South,173,2.0,3.0,97,0.63,,SCT110,1.86,0.00,VWS V14.01,2013-05-31 01:50:00,
2013-05-30 20:53:00,62.6,61.7,29.66,ESE,115,0.0,3.0,97,0.60,,BKN100,1.86,0.00,VWS V14.01,2013-05-31 01:53:00,
2013-05-30 20:55:00,62.6,61.7,29.66,East,80,2.0,3.0,97,0.60,,SCT110,1.86,0.00,VWS V14.01,2013-05-31 01:55:00,
2013-05-30 20:58:00,62.6,61.7,29.66,SE,136,0.0,3.0,97,0.57,,BKN100,1.86,0.00,VWS V14.01,2013-05-31 01:58:00,
2013-05-30 21:00:00,62.6,61.7,29.65,ESE,120,0.0,3.0,97,0.58,,SCT110,1.87,0.00,VWS V14.01,2013-05-31 02:00:00,
2013-05-30 21:03:00,62.6,61.7,29.65,SSW,202,3.0,3.0,97,0.55,,SCT100,1.87,0.00,VWS V14.01,2013-05-31 02:03:00,
2013-05-30 21:05:00,62.6,61.7,29.65,ENE,59,0.0,6.0,97,0.55,,SCT110,1.87,0.00,VWS V14.01,2013-05-31 02:05:00,
2013-05-30 21:08:00,62.6,61.7,29.65,SW,229,0.0,5.0,97,0.41,,SCT100,1.87,0.00,VWS V14.01,2013-05-31 02:08:00,
2013-05-30 21:10:00,62.6,61.7,29.65,SW,229,0.0,5.0,97,0.41,,SCT110,1.87,0.00,VWS V14.01,2013-05-31 02:10:00,
2013-05-30 21:13:00,62.6,61.7,29.65,WSW,252,0.0,1.0,97,0.20,,SCT100,1.87,0.00,VWS V14.01,2013-05-31 02:13:00,
2013-05-30 21:15:00,62.7,61.8,29.66,East,97,0.0,7.0,97,0.20,,SCT110,1.87,0.00,VWS V14.01,2013-05-31 02:15:00,
2013-05-30 21:18:00,62.8,61.9,29.66,SE,132,0.0,6.0,97,0.09,,SCT100,1.88,0.00,VWS V14.01,2013-05-31 02:18:00,
2013-05-30 21:20:00,62.9,62.0,29.66,ESE,116,2.0,6.0,97,0.09,,SCT110,1.88,0.00,VWS V14.01,2013-05-31 02:20:00,
2013-05-30 21:23:00,63.1,62.2,29.66,ESE,112,0.0,2.0,97,0.05,,SCT100,1.88,0.00,VWS V14.01,2013-05-31 02:23:00,
2013-05-30 21:25:00,63.1,62.2,29.66,ESE,112,0.0,2.0,97,0.05,,SCT110,1.88,0.00,VWS V14.01,2013-05-31 02:25:00,
2013-05-30 21:28:00,63.3,62.4,29.66,SE,131,1.0,4.0,97,0.04,,SCT100,1.88,0.00,VWS V14.01,2013-05-31 02:28:00,
2013-05-30 21:30:00,63.5,62.6,29.66,SE,140,2.0,5.0,97,0.04,,SCT110,1.88,0.00,VWS V14.01,2013-05-31 02:30:00,
2013-05-30 21:33:00,63.6,62.7,29.66,SE,142,0.0,4.0,97,0.03,,SCT100,1.88,0.00,VWS V14.01,2013-05-31 02:33:00,
2013-05-30 21:35:00,63.7,62.8,29.66,SE,141,0.0,4.0,97,0.03,,SCT110,1.88,0.00,VWS V14.01,2013-05-31 02:35:00,
2013-05-30 21:38:00,63.9,63.0,29.66,South,172,1.0,2.0,97,0.02,,SCT100,1.88,0.00,VWS V14.01,2013-05-31 02:38:00,
2013-05-30 21:40:00,64.0,63.1,29.66,SSW,211,0.0,2.0,97,0.02,,SCT110,1.88,0.00,VWS V14.01,2013-05-31 02:40:00,
2013-05-30 21:43:00,64.3,63.4,29.66,NNW,347,0.0,5.0,97,0.02,,SCT100,1.88,0.00,VWS V14.01,2013-05-31 02:43:00,
2013-05-30 21:45:00,64.5,63.6,29.67,ESE,106,0.0,5.0,97,0.02,,SCT110,1.88,0.00,VWS V14.01,2013-05-31 02:45:00,
2013-05-30 21:48:00,64.8,64.2,29.67,SSE,148,0.0,7.0,98,0.02,,SCT100,1.88,0.00,VWS V14.01,2013-05-31 02:48:00,
2013-05-30 21:50:00,65.0,64.4,29.67,SW,233,3.0,7.0,98,0.02,,SCT110,1.88,0.00,VWS V14.01,2013-05-31 02:50:00,
2013-05-30 21:53:00,65.3,64.7,29.67,SE,134,0.0,4.0,98,0.02,,SCT100,1.88,0.00,VWS V14.01,2013-05-31 02:53:00,
2013-05-30 21:55:00,65.5,64.9,29.67,ESE,111,1.0,9.0,98,0.03,,SCT110,1.89,0.00,VWS V14.01,2013-05-31 02:55:00,
2013-05-30 21:58:00,65.8,65.2,29.67,East,90,3.0,8.0,98,0.03,,SCT100,1.89,0.00,VWS V14.01,2013-05-31 02:58:00,
2013-05-30 22:00:00,65.9,65.3,29.67,ENE,78,3.0,8.0,98,0.03,,SCT110,1.89,0.00,VWS V14.01,2013-05-31 03:00:00,
2013-05-30 22:03:00,66.1,65.5,29.67,NE,36,0.0,9.0,98,0.02,,CLR,1.89,0.00,VWS V14.01,2013-05-31 03:03:00,
2013-05-30 22:05:00,66.2,65.3,29.67,ENE,69,3.0,9.0,97,0.02,,SCT110,1.89,0.00,VWS V14.01,2013-05-31 03:05:00,
2013-05-30 22:08:00,66.4,65.5,29.67,SSE,153,0.0,4.0,97,0.02,,CLR,1.89,0.00,VWS V14.01,2013-05-31 03:08:00,
2013-05-30 22:10:00,66.5,65.6,29.67,ESE,115,1.0,4.0,97,0.02,,SCT110,1.89,0.00,VWS V14.01,2013-05-31 03:10:00,
2013-05-30 22:13:00,66.6,65.7,29.67,South,178,0.0,2.0,97,0.02,,CLR,1.89,0.00,VWS V14.01,2013-05-31 03:13:00,
2013-05-30 22:15:00,66.7,65.8,29.68,East,101,0.0,2.0,97,0.02,,SCT110,1.89,0.00,VWS V14.01,2013-05-31 03:15:00,
2013-05-30 22:18:00,66.8,65.9,29.68,SW,220,0.0,3.0,97,0.02,,CLR,1.89,0.00,VWS V14.01,2013-05-31 03:18:00,
2013-05-30 22:20:00,66.8,65.9,29.68,SE,144,0.0,3.0,97,0.02,,SCT110,1.89,0.00,VWS V14.01,2013-05-31 03:20:00,
2013-05-30 22:23:00,66.8,65.9,29.68,NW,310,0.0,1.0,97,0.01,,CLR,1.89,0.00,VWS V14.01,2013-05-31 03:23:00,
2013-05-30 22:25:00,66.8,65.9,29.68,ESE,108,0.0,1.0,97,0.01,,SCT110,1.89,0.00,VWS V14.01,2013-05-31 03:25:00,
2013-05-30 22:28:00,66.8,65.6,29.68,East,88,0.0,2.0,96,0.02,,CLR,1.90,0.00,VWS V14.01,2013-05-31 03:28:00,
2013-05-30 22:30:00,66.8,65.9,29.72,SW,223,0.0,2.0,97,0.02,,SCT110,1.90,0.00,VWS V14.01,2013-05-31 03:30:00,
2013-05-30 22:33:00,66.9,66.0,29.72,SSE,168,0.0,2.0,97,0.03,,CLR,1.91,0.00,VWS V14.01,2013-05-31 03:33:00,
2013-05-30 22:35:00,66.9,66.0,29.72,SSE,163,0.0,2.0,97,0.03,,SCT110,1.91,0.00,VWS V14.01,2013-05-31 03:35:00,
2013-05-30 22:38:00,67.0,66.1,29.72,ESE,123,1.0,2.0,97,0.04,,CLR,1.92,0.00,VWS V14.01,2013-05-31 03:38:00,
2013-05-30 22:40:00,67.0,66.1,29.72,WNW,300,0.0,2.0,97,0.05,,SCT110,1.93,0.00,VWS V14.01,2013-05-31 03:40:00,
2013-05-30 22:43:00,67.0,66.1,29.72,West,262,0.0,2.0,97,0.06,,CLR,1.94,0.00,VWS V14.01,2013-05-31 03:43:00,
2013-05-30 22:45:00,67.0,66.1,29.74,NW,308,0.0,2.0,97,0.06,,SCT110,1.94,0.00,VWS V14.01,2013-05-31 03:45:00,
2013-05-30 22:48:00,67.0,66.1,29.74,SE,129,0.0,1.0,97,0.07,,-RA,1.95,0.00,VWS V14.01,2013-05-31 03:48:00,
2013-05-30 22:50:00,67.0,66.1,29.74,ESE,114,2.0,5.0,97,0.07,,SCT110,1.95,0.00,VWS V14.01,2013-05-31 03:50:00,
2013-05-30 22:53:00,67.1,66.2,29.74,ESE,120,0.0,3.0,97,0.08,,-RA,1.96,0.00,VWS V14.01,2013-05-31 03:53:00,
2013-05-30 22:55:00,67.1,66.2,29.74,East,90,0.0,3.0,97,0.08,,SCT110,1.96,0.00,VWS V14.01,2013-05-31 03:55:00,
2013-05-30 22:58:00,67.1,66.2,29.74,ESE,108,3.0,3.0,97,0.08,,-RA,1.97,0.00,VWS V14.01,2013-05-31 03:58:00,
2013-05-30 23:00:00,67.1,66.2,29.71,ESE,105,0.0,3.0,97,0.08,,SCT110,1.97,0.00,VWS V14.01,2013-05-31 04:00:00,
2013-05-30 23:02:00,67.1,66.2,29.71,ESE,112,0.0,3.0,97,0.08,,-RA,1.97,0.00,VWS V14.01,2013-05-31 04:02:00,
2013-05-30 23:03:00,67.1,66.2,29.71,ESE,111,0.0,3.0,97,0.08,,-RA,1.97,0.00,VWS V14.01,2013-05-31 04:03:00,
2013-05-30 23:04:00,67.1,66.2,29.71,East,90,2.0,5.0,97,0.08,,-RA,1.97,0.00,VWS V14.01,2013-05-31 04:04:00,
2013-05-30 23:05:00,67.1,66.2,29.71,ESE,119,0.0,5.0,97,0.08,,SCT110,1.97,0.00,VWS V14.01,2013-05-31 04:05:00,
2013-05-30 23:07:00,67.1,66.2,29.71,SSE,148,0.0,2.0,97,0.08,,-RA,1.97,0.00,VWS V14.01,2013-05-31 04:07:00,
2013-05-30 23:10:00,67.1,66.2,29.71,SE,126,0.0,4.0,97,0.08,,SCT110,1.97,0.00,VWS V14.01,2013-05-31 04:10:00,
2013-05-30 23:11:00,67.1,66.2,29.71,ESE,104,4.0,5.0,97,0.08,,-RA,1.97,0.00,VWS V14.01,2013-05-31 04:11:00,
2013-05-30 23:15:00,67.2,66.3,29.69,ENE,65,0.0,5.0,97,0.09,,SCT110,1.98,0.00,VWS V14.01,2013-05-31 04:15:00,
2013-05-30 23:16:00,67.2,66.3,29.69,ESE,107,2.0,3.0,97,0.09,,-RA,1.98,0.00,VWS V14.01,2013-05-31 04:16:00,
2013-05-30 23:20:00,67.1,66.2,29.69,SE,142,3.0,3.0,97,0.09,,SCT110,1.98,0.00,VWS V14.01,2013-05-31 04:20:00,
2013-05-30 23:21:00,67.1,66.2,29.69,ESE,119,3.0,3.0,97,0.09,,CLR,1.98,0.00,VWS V14.01,2013-05-31 04:21:00,
2013-05-30 23:25:00,67.1,66.2,29.69,East,96,3.0,6.0,97,0.09,,SCT110,1.98,0.00,VWS V14.01,2013-05-31 04:25:00,
2013-05-30 23:26:00,67.1,66.2,29.69,East,95,0.0,3.0,97,0.09,,CLR,1.98,0.00,VWS V14.01,2013-05-31 04:26:00,
2013-05-30 23:30:00,67.1,66.2,29.68,SE,130,1.0,10.0,97,0.10,,SCT110,1.99,0.00,VWS V14.01,2013-05-31 04:30:00,
2013-05-30 23:31:00,67.1,66.2,29.68,SE,135,2.0,3.0,97,0.09,,CLR,1.99,0.00,VWS V14.01,2013-05-31 04:31:00,
2013-05-30 23:35:00,67.1,66.2,29.68,SE,128,1.0,5.0,97,0.09,,SCT110,1.99,0.00,VWS V14.01,2013-05-31 04:35:00,
2013-05-30 23:36:00,67.2,66.3,29.68,SE,131,6.0,7.0,97,0.08,,CLR,1.99,0.00,VWS V14.01,2013-05-31 04:36:00,
2013-05-30 23:40:00,67.2,66.0,29.68,ESE,109,0.0,7.0,96,0.08,,SCT110,1.99,0.00,VWS V14.01,2013-05-31 04:40:00,
2013-05-30 23:41:00,67.2,66.0,29.68,ESE,105,1.0,2.0,96,0.06,,CLR,1.99,0.00,VWS V14.01,2013-05-31 04:41:00,
2013-05-30 23:45:00,67.2,66.0,29.65,NW,310,0.0,7.0,96,0.06,,SCT110,1.99,0.00,VWS V14.01,2013-05-31 04:45:00,
2013-05-30 23:46:00,67.2,66.0,29.65,ESE,113,1.0,3.0,96,0.05,,CLR,1.99,0.00,VWS V14.01,2013-05-31 04:46:00,
2013-05-30 23:50:00,67.1,65.9,29.65,East,93,0.0,5.0,96,0.05,,SCT110,1.99,0.00,VWS V14.01,2013-05-31 04:50:00,
2013-05-30 23:51:00,67.2,66.0,29.65,East,93,0.0,0.0,96,0.04,,CLR,1.99,0.00,VWS V14.01,2013-05-31 04:51:00,
2013-05-30 23:55:00,67.1,65.9,29.65,SSE,165,0.0,5.0,96,0.04,,SCT110,1.99,0.00,VWS V14.01,2013-05-31 04:55:00,
2013-05-30 23:56:00,67.1,65.9,29.65,SSE,165,0.0,1.0,96,0.03,,CLR,1.99,0.00,VWS V14.01,2013-05-31 04:56:00,